Wetterdaten: Dienstag, 12.10.2010
Datum Zeit Temp. Innen Temp. Aussen UV X Diff Temp. Feuchte Inne Feuchte Auss Sonnenschein Luftdruck Regen ab 0,1 Wind Sonnenschein T Regendauer Windben
12.10.2010 00:00 18,7 C 8,9 C 0,1 UV-I 0,0 C 47 % 77 % 0 % 1016,5 hPa 0,0 l/m 0,0 km/h (0 Bft) 0 min 2 min 0,0 km/h (0 Bft)
12.10.2010 00:02 18,7 C 8,8 C 0,1 UV-I 0,0 C 47 % 77 % 0 % 1016,5 hPa 0,0 l/m 0,0 km/h (0 Bft) 0 min 0 min 0,0 km/h (0 Bft)
12.10.2010 00:04 18,7 C 8,8 C 0,1 UV-I 0,0 C 47 % 77 % 0 % 1016,5 hPa 0,0 l/m 0,0 km/h (0 Bft) 0 min 2 min 0,0 km/h (0 Bft)
12.10.2010 00:06 18,7 C 8,8 C 0,1 UV-I 0,0 C 47 % 77 % 0 % 1016,2 hPa 0,0 l/m 0,0 km/h (0 Bft) 0 min 2 min 0,0 km/h (0 Bft)
12.10.2010 00:08 18,7 C 8,8 C 0,1 UV-I 0,0 C 47 % 77 % 0 % 1016,2 hPa 0,0 l/m 0,0 km/h (0 Bft) 0 min 2 min 0,0 km/h (0 Bft)
12.10.2010 00:10 18,6 C 8,9 C 0,1 UV-I 0,0 C 47 % 77 % 0 % 1016,2 hPa 0,0 l/m 0,0 km/h (0 Bft) 0 min 2 min 0,0 km/h (0 Bft)
12.10.2010 00:12 18,6 C 8,8 C 0,1 UV-I 0,0 C 47 % 77 % 0 % 1016,2 hPa 0,0 l/m 0,0 km/h (0 Bft) 0 min 0 min 0,0 km/h (0 Bft)
12.10.2010 00:14 18,6 C 8,7 C 0,1 UV-I 0,0 C 47 % 77 % 0 % 1016,2 hPa 0,0 l/m 0,0 km/h (0 Bft) 0 min 0 min 0,0 km/h (0 Bft)
12.10.2010 00:16 18,6 C 8,7 C 0,1 UV-I 0,0 C 47 % 77 % 0 % 1016,2 hPa 0,0 l/m 0,0 km/h (0 Bft) 0 min 0 min 0,0 km/h (0 Bft)
12.10.2010 00:18 18,7 C 8,7 C 0,1 UV-I 0,0 C 47 % 77 % 0 % 1016,2 hPa 0,0 l/m 0,0 km/h (0 Bft) 0 min 2 min 0,0 km/h (0 Bft)
12.10.2010 00:20 18,6 C 8,5 C 0,1 UV-I 0,0 C 47 % 77 % 0 % 1016,2 hPa 0,0 l/m 0,0 km/h (0 Bft) 0 min 2 min 0,0 km/h (0 Bft)
12.10.2010 00:22 18,6 C 8,5 C 0,1 UV-I 0,0 C 47 % 77 % 0 % 1016,2 hPa 0,0 l/m 0,0 km/h (0 Bft) 0 min 2 min 0,0 km/h (0 Bft)
12.10.2010 00:24 18,6 C 8,5 C 0,1 UV-I 0,0 C 47 % 78 % 0 % 1016,2 hPa 0,0 l/m 0,0 km/h (0 Bft) 0 min 2 min 0,0 km/h (0 Bft)
12.10.2010 00:26 18,6 C 8,4 C 0,1 UV-I 0,0 C 47 % 78 % 0 % 1016,4 hPa 0,0 l/m 0,0 km/h (0 Bft) 0 min 2 min 0,0 km/h (0 Bft)
12.10.2010 00:28 18,6 C 8,3 C 0,1 UV-I 0,0 C 47 % 78 % 0 % 1016,4 hPa 0,0 l/m 0,0 km/h (0 Bft) 0 min 2 min 0,0 km/h (0 Bft)
12.10.2010 00:30 18,6 C 8,3 C 0,1 UV-I 0,0 C 47 % 78 % 0 % 1016,4 hPa 0,0 l/m 0,0 km/h (0 Bft) 0 min 2 min 0,0 km/h (0 Bft)
12.10.2010 00:32 18,6 C 8,1 C 0,1 UV-I 0,0 C 47 % 78 % 0 % 1016,4 hPa 0,0 l/m 0,0 km/h (0 Bft) 0 min 0 min 0,0 km/h (0 Bft)
12.10.2010 00:34 18,6 C 8,0 C 0,1 UV-I 0,0 C 47 % 78 % 0 % 1016,4 hPa 0,0 l/m 0,0 km/h (0 Bft) 0 min 0 min 0,0 km/h (0 Bft)
12.10.2010 00:36 18,6 C 8,0 C 0,1 UV-I 0,0 C 47 % 78 % 0 % 1016,4 hPa 0,0 l/m 0,0 km/h (0 Bft) 0 min 0 min 0,0 km/h (0 Bft)
12.10.2010 00:38 18,6 C 8,0 C 0,1 UV-I 0,0 C 47 % 79 % 0 % 1016,4 hPa 0,0 l/m 0,0 km/h (0 Bft) 0 min 2 min 0,0 km/h (0 Bft)
12.10.2010 00:40 18,6 C 7,9 C 0,1 UV-I 0,0 C 47 % 79 % 0 % 1016,4 hPa 0,0 l/m 0,0 km/h (0 Bft) 0 min 2 min 0,0 km/h (0 Bft)
12.10.2010 00:42 18,6 C 7,9 C 0,1 UV-I 0,0 C 47 % 79 % 0 % 1016,4 hPa 0,0 l/m 0,0 km/h (0 Bft) 0 min 2 min 0,0 km/h (0 Bft)
12.10.2010 00:44 18,6 C 7,7 C 0,1 UV-I 0,0 C 47 % 79 % 0 % 1016,4 hPa 0,0 l/m 0,0 km/h (0 Bft) 0 min 2 min 0,0 km/h (0 Bft)
12.10.2010 00:46 18,6 C 7,7 C 0,1 UV-I 0,0 C 47 % 79 % 0 % 1016,4 hPa 0,0 l/m 0,0 km/h (0 Bft) 0 min 2 min 0,0 km/h (0 Bft)
12.10.2010 00:48 18,6 C 7,6 C 0,1 UV-I 0,0 C 47 % 80 % 0 % 1016,4 hPa 0,0 l/m 0,0 km/h (0 Bft) 0 min 2 min 0,0 km/h (0 Bft)
12.10.2010 00:50 18,6 C 7,6 C 0,1 UV-I 0,0 C 47 % 80 % 0 % 1016,4 hPa 0,0 l/m 0,0 km/h (0 Bft) 0 min 2 min 0,0 km/h (0 Bft)
12.10.2010 00:52 18,6 C 7,5 C 0,1 UV-I 0,0 C 47 % 80 % 0 % 1016,4 hPa 0,0 l/m 0,0 km/h (0 Bft) 0 min 2 min 0,0 km/h (0 Bft)
12.10.2010 00:54 18,5 C 7,5 C 0,1 UV-I 0,0 C 47 % 80 % 0 % 1016,4 hPa 0,0 l/m 0,0 km/h (0 Bft) 0 min 0 min 0,0 km/h (0 Bft)
12.10.2010 00:56 18,5 C 7,4 C 0,1 UV-I 0,0 C 47 % 80 % 0 % 1016,4 hPa 0,0 l/m 0,0 km/h (0 Bft) 0 min 0 min 0,0 km/h (0 Bft)
12.10.2010 00:58 18,5 C 7,3 C 0,1 UV-I 0,0 C 47 % 80 % 0 % 1016,4 hPa 0,0 l/m 0,0 km/h (0 Bft) 0 min 0 min 0,0 km/h (0 Bft)
12.10.2010 01:00 18,5 C 7,3 C 0,1 UV-I 0,0 C 47 % 80 % 0 % 1016,4 hPa 0,0 l/m 0,0 km/h (0 Bft) 0 min 2 min 0,0 km/h (0 Bft)
12.10.2010 01:02 18,5 C 7,1 C 0,0 UV-I 0,0 C 47 % 81 % 0 % 1016,4 hPa 0,0 l/m 0,0 km/h (0 Bft) 0 min 2 min 0,0 km/h (0 Bft)
12.10.2010 01:04 18,5 C 7,1 C 0,0 UV-I 0,0 C 47 % 81 % 0 % 1016,4 hPa 0,0 l/m 0,0 km/h (0 Bft) 0 min 2 min 0,0 km/h (0 Bft)
12.10.2010 01:06 18,5 C 7,1 C 0,0 UV-I 0,0 C 47 % 81 % 0 % 1016,2 hPa 0,0 l/m 0,0 km/h (0 Bft) 0 min 2 min 0,0 km/h (0 Bft)
12.10.2010 01:08 18,4 C 6,9 C 0,0 UV-I 0,0 C 47 % 81 % 0 % 1016,2 hPa 0,0 l/m 0,0 km/h (0 Bft) 0 min 2 min 0,0 km/h (0 Bft)
12.10.2010 01:10 18,4 C 6,9 C 0,0 UV-I 0,0 C 47 % 81 % 0 % 1016,2 hPa 0,0 l/m 0,0 km/h (0 Bft) 0 min 2 min 0,0 km/h (0 Bft)
12.10.2010 01:12 18,4 C 6,8 C 0,1 UV-I 0,0 C 47 % 82 % 0 % 1016,2 hPa 0,0 l/m 0,0 km/h (0 Bft) 0 min 2 min 0,0 km/h (0 Bft)
12.10.2010 01:14 18,4 C 6,8 C 0,1 UV-I 0,0 C 47 % 82 % 0 % 1016,2 hPa 0,0 l/m 0,0 km/h (0 Bft) 0 min 2 min 0,0 km/h (0 Bft)
12.10.2010 01:16 18,4 C 6,7 C 0,1 UV-I 0,0 C 47 % 82 % 0 % 1016,2 hPa 0,0 l/m 0,0 km/h (0 Bft) 0 min 2 min 0,0 km/h (0 Bft)
12.10.2010 01:18 18,4 C 6,7 C 0,1 UV-I 0,0 C 47 % 82 % 0 % 1016,2 hPa 0,0 l/m 0,0 km/h (0 Bft) 0 min 2 min 0,0 km/h (0 Bft)
12.10.2010 01:20 18,4 C 6,7 C 0,1 UV-I 0,0 C 47 % 82 % 0 % 1016,2 hPa 0,0 l/m 0,0 km/h (0 Bft) 0 min 0 min 0,0 km/h (0 Bft)
12.10.2010 01:22 18,4 C 6,5 C 0,1 UV-I 0,0 C 47 % 82 % 0 % 1016,2 hPa 0,0 l/m 0,0 km/h (0 Bft) 0 min 0 min 0,0 km/h (0 Bft)
12.10.2010 01:24 18,4 C 6,5 C 0,1 UV-I 0,0 C 47 % 82 % 0 % 1016,2 hPa 0,0 l/m 0,0 km/h (0 Bft) 0 min 2 min 0,0 km/h (0 Bft)
12.10.2010 01:26 18,4 C 6,4 C 0,1 UV-I 0,0 C 47 % 83 % 0 % 1016,1 hPa 0,0 l/m 0,0 km/h (0 Bft) 0 min 2 min 0,0 km/h (0 Bft)
12.10.2010 01:28 18,4 C 6,5 C 0,1 UV-I 0,0 C 47 % 83 % 0 % 1016,1 hPa 0,0 l/m 0,0 km/h (0 Bft) 0 min 2 min 0,0 km/h (0 Bft)
12.10.2010 01:30 18,4 C 6,3 C 0,1 UV-I 0,0 C 47 % 83 % 0 % 1016,1 hPa 0,0 l/m 0,0 km/h (0 Bft) 0 min 2 min 0,0 km/h (0 Bft)
12.10.2010 01:32 18,4 C 6,3 C 0,1 UV-I 0,0 C 47 % 83 % 0 % 1016,1 hPa 0,0 l/m 0,0 km/h (0 Bft) 0 min 2 min 0,0 km/h (0 Bft)
12.10.2010 01:34 18,4 C 6,2 C 0,1 UV-I 0,0 C 47 % 83 % 0 % 1016,1 hPa 0,0 l/m 0,0 km/h (0 Bft) 0 min 2 min 0,0 km/h (0 Bft)
12.10.2010 01:36 18,4 C 6,3 C 0,1 UV-I 0,0 C 47 % 83 % 0 % 1016,1 hPa 0,0 l/m 0,0 km/h (0 Bft) 0 min 2 min 0,0 km/h (0 Bft)
12.10.2010 01:38 18,2 C 6,1 C 0,1 UV-I 0,0 C 47 % 83 % 0 % 1016,1 hPa 0,0 l/m 0,0 km/h (0 Bft) 0 min 2 min 0,0 km/h (0 Bft)
12.10.2010 01:40 18,2 C 6,1 C 0,1 UV-I 0,0 C 47 % 83 % 0 % 1016,1 hPa 0,0 l/m 0,0 km/h (0 Bft) 0 min 2 min 0,0 km/h (0 Bft)
12.10.2010 01:42 18,2 C 6,0 C 0,0 UV-I 0,0 C 47 % 84 % 0 % 1016,1 hPa 0,0 l/m 0,0 km/h (0 Bft) 0 min 2 min 0,0 km/h (0 Bft)
12.10.2010 01:44 18,2 C 6,1 C 0,0 UV-I 0,0 C 47 % 84 % 0 % 1016,1 hPa 0,0 l/m 0,0 km/h (0 Bft) 0 min 2 min 0,0 km/h (0 Bft)
12.10.2010 01:46 18,3 C 6,0 C 0,1 UV-I 0,0 C 47 % 84 % 0 % 1016,2 hPa 0,0 l/m 0,0 km/h (0 Bft) 0 min 2 min 0,0 km/h (0 Bft)
12.10.2010 01:48 18,3 C 6,0 C 0,1 UV-I 0,0 C 47 % 84 % 0 % 1016,2 hPa 0,0 l/m 0,0 km/h (0 Bft) 0 min 2 min 0,0 km/h (0 Bft)
12.10.2010 01:50 18,3 C 5,9 C 0,1 UV-I 0,0 C 47 % 84 % 0 % 1016,2 hPa 0,0 l/m 0,0 km/h (0 Bft) 0 min 0 min 0,0 km/h (0 Bft)
12.10.2010 01:52 18,3 C 5,9 C 0,0 UV-I 0,0 C 47 % 84 % 0 % 1016,2 hPa 0,0 l/m 0,0 km/h (0 Bft) 0 min 0 min 0,0 km/h (0 Bft)
12.10.2010 01:54 18,2 C 5,9 C 0,0 UV-I 0,0 C 47 % 84 % 0 % 1016,2 hPa 0,0 l/m 0,0 km/h (0 Bft) 0 min 2 min 0,0 km/h (0 Bft)
12.10.2010 01:56 18,2 C 5,8 C 0,0 UV-I 0,0 C 47 % 84 % 0 % 1016,2 hPa 0,0 l/m 0,0 km/h (0 Bft) 0 min 0 min 0,0 km/h (0 Bft)
12.10.2010 01:58 18,2 C 5,7 C 0,0 UV-I 0,0 C 47 % 84 % 0 % 1016,2 hPa 0,0 l/m 0,0 km/h (0 Bft) 0 min 2 min 0,0 km/h (0 Bft)
12.10.2010 02:00 18,2 C 5,7 C 0,0 UV-I 0,0 C 47 % 85 % 0 % 1016,2 hPa 0,0 l/m 0,0 km/h (0 Bft) 0 min 2 min 0,0 km/h (0 Bft)
12.10.2010 02:02 18,2 C 5,6 C 0,1 UV-I 0,0 C 47 % 85 % 0 % 1016,2 hPa 0,0 l/m 0,0 km/h (0 Bft) 0 min 2 min 0,0 km/h (0 Bft)
12.10.2010 02:04 18,2 C 5,7 C 0,1 UV-I 0,0 C 47 % 85 % 0 % 1016,2 hPa 0,0 l/m 0,0 km/h (0 Bft) 0 min 2 min 0,0 km/h (0 Bft)
12.10.2010 02:06 18,2 C 5,6 C 0,0 UV-I 0,0 C 47 % 85 % 0 % 1015,9 hPa 0,0 l/m 0,0 km/h (0 Bft) 0 min 2 min 0,0 km/h (0 Bft)
12.10.2010 02:08 18,2 C 5,6 C 0,0 UV-I 0,0 C 47 % 85 % 0 % 1015,9 hPa 0,0 l/m 0,0 km/h (0 Bft) 0 min 2 min 0,0 km/h (0 Bft)
12.10.2010 02:10 18,2 C 5,5 C 0,0 UV-I 0,0 C 47 % 85 % 0 % 1015,9 hPa 0,0 l/m 0,0 km/h (0 Bft) 0 min 2 min 0,0 km/h (0 Bft)
12.10.2010 02:12 18,2 C 5,5 C 0,1 UV-I 0,0 C 47 % 85 % 0 % 1015,9 hPa 0,0 l/m 0,0 km/h (0 Bft) 0 min 2 min 0,0 km/h (0 Bft)
12.10.2010 02:14 18,1 C 5,5 C 0,1 UV-I 0,0 C 47 % 86 % 0 % 1015,9 hPa 0,0 l/m 0,0 km/h (0 Bft) 0 min 2 min 0,0 km/h (0 Bft)
12.10.2010 02:16 18,1 C 5,4 C 0,0 UV-I 0,0 C 47 % 86 % 0 % 1015,9 hPa 0,0 l/m 0,0 km/h (0 Bft) 0 min 2 min 0,0 km/h (0 Bft)
12.10.2010 02:18 18,1 C 5,5 C 0,0 UV-I 0,0 C 47 % 86 % 0 % 1015,9 hPa 0,0 l/m 0,0 km/h (0 Bft) 0 min 2 min 0,0 km/h (0 Bft)
12.10.2010 02:20 18,1 C 5,5 C 0,0 UV-I 0,0 C 47 % 86 % 0 % 1015,9 hPa 0,0 l/m 0,0 km/h (0 Bft) 0 min 2 min 0,0 km/h (0 Bft)
12.10.2010 02:22 18,1 C 5,3 C 0,0 UV-I 0,0 C 47 % 86 % 0 % 1015,9 hPa 0,0 l/m 0,0 km/h (0 Bft) 0 min 2 min 0,0 km/h (0 Bft)
12.10.2010 02:24 18,1 C 5,3 C 0,0 UV-I 0,0 C 47 % 86 % 0 % 1015,9 hPa 0,0 l/m 0,0 km/h (0 Bft) 0 min 2 min 0,0 km/h (0 Bft)
12.10.2010 02:26 18,1 C 5,2 C 0,0 UV-I 0,0 C 47 % 86 % 0 % 1015,8 hPa 0,0 l/m 0,0 km/h (0 Bft) 0 min 2 min 0,0 km/h (0 Bft)
12.10.2010 02:28 18,1 C 5,3 C 0,0 UV-I 0,0 C 47 % 86 % 0 % 1015,8 hPa 0,0 l/m 0,0 km/h (0 Bft) 0 min 0 min 0,0 km/h (0 Bft)
12.10.2010 02:30 18,0 C 5,1 C 0,0 UV-I 0,0 C 47 % 86 % 0 % 1015,8 hPa 0,0 l/m 0,0 km/h (0 Bft) 0 min 0 min 0,0 km/h (0 Bft)
12.10.2010 02:32 18,0 C 5,2 C 0,0 UV-I 0,0 C 47 % 86 % 0 % 1015,8 hPa 0,0 l/m 0,0 km/h (0 Bft) 0 min 0 min 0,0 km/h (0 Bft)
12.10.2010 02:34 18,0 C 5,1 C 0,0 UV-I 0,0 C 47 % 86 % 0 % 1015,8 hPa 0,0 l/m 0,0 km/h (0 Bft) 0 min 2 min 0,0 km/h (0 Bft)
12.10.2010 02:36 18,0 C 5,1 C 0,0 UV-I 0,0 C 47 % 86 % 0 % 1015,8 hPa 0,0 l/m 0,0 km/h (0 Bft) 0 min 2 min 0,0 km/h (0 Bft)
12.10.2010 02:38 18,0 C 5,1 C 0,0 UV-I 0,0 C 47 % 86 % 0 % 1015,8 hPa 0,0 l/m 0,0 km/h (0 Bft) 0 min 2 min 0,0 km/h (0 Bft)
12.10.2010 02:40 18,0 C 5,1 C 0,0 UV-I 0,0 C 47 % 86 % 0 % 1015,8 hPa 0,0 l/m 0,0 km/h (0 Bft) 0 min 2 min 0,0 km/h (0 Bft)
12.10.2010 02:42 18,0 C 5,1 C 0,0 UV-I 0,0 C 47 % 86 % 0 % 1015,8 hPa 0,0 l/m 0,0 km/h (0 Bft) 0 min 2 min 0,0 km/h (0 Bft)
12.10.2010 02:44 18,0 C 4,9 C 0,0 UV-I 0,0 C 47 % 87 % 0 % 1015,8 hPa 0,0 l/m 0,0 km/h (0 Bft) 0 min 2 min 0,0 km/h (0 Bft)
12.10.2010 02:46 18,0 C 4,9 C 0,0 UV-I 0,0 C 47 % 87 % 0 % 1015,8 hPa 0,0 l/m 0,0 km/h (0 Bft) 0 min 2 min 0,0 km/h (0 Bft)
12.10.2010 02:48 18,0 C 4,9 C 0,0 UV-I 0,0 C 47 % 87 % 0 % 1015,8 hPa 0,0 l/m 0,0 km/h (0 Bft) 0 min 2 min 0,0 km/h (0 Bft)
12.10.2010 02:50 18,0 C 4,9 C 0,0 UV-I 0,0 C 47 % 87 % 0 % 1015,8 hPa 0,0 l/m 0,0 km/h (0 Bft) 0 min 2 min 0,0 km/h (0 Bft)
12.10.2010 02:52 18,0 C 4,9 C 0,0 UV-I 0,0 C 47 % 87 % 0 % 1015,8 hPa 0,0 l/m 0,0 km/h (0 Bft) 0 min 2 min 0,0 km/h (0 Bft)
12.10.2010 02:54 18,0 C 4,8 C 0,0 UV-I 0,0 C 47 % 87 % 0 % 1015,8 hPa 0,0 l/m 0,0 km/h (0 Bft) 0 min 2 min 0,0 km/h (0 Bft)
12.10.2010 02:56 18,0 C 4,9 C 0,0 UV-I 0,0 C 47 % 87 % 0 % 1015,8 hPa 0,0 l/m 0,0 km/h (0 Bft) 0 min 2 min 0,0 km/h (0 Bft)
12.10.2010 02:58 17,9 C 4,8 C 0,0 UV-I 0,0 C 47 % 87 % 0 % 1015,8 hPa 0,0 l/m 0,0 km/h (0 Bft) 0 min 2 min 0,0 km/h (0 Bft)
12.10.2010 03:00 17,9 C 4,8 C 0,0 UV-I 0,0 C 47 % 87 % 0 % 1015,8 hPa 0,0 l/m 0,0 km/h (0 Bft) 0 min 2 min 0,0 km/h (0 Bft)
12.10.2010 03:02 17,9 C 4,7 C 0,1 UV-I 0,0 C 47 % 87 % 0 % 1015,8 hPa 0,0 l/m 0,0 km/h (0 Bft) 0 min 2 min 0,0 km/h (0 Bft)
12.10.2010 03:04 17,9 C 4,7 C 0,1 UV-I 0,0 C 47 % 88 % 0 % 1015,8 hPa 0,0 l/m 0,0 km/h (0 Bft) 0 min 2 min 0,0 km/h (0 Bft)
12.10.2010 03:06 17,9 C 4,6 C 0,0 UV-I 0,0 C 47 % 88 % 0 % 1016,0 hPa 0,0 l/m 0,0 km/h (0 Bft) 0 min 2 min 0,0 km/h (0 Bft)
12.10.2010 03:08 17,9 C 4,7 C 0,0 UV-I 0,0 C 47 % 88 % 0 % 1016,0 hPa 0,0 l/m 0,0 km/h (0 Bft) 0 min 2 min 0,0 km/h (0 Bft)
12.10.2010 03:10 17,9 C 4,6 C 0,0 UV-I 0,0 C 46 % 88 % 0 % 1016,0 hPa 0,0 l/m 0,0 km/h (0 Bft) 0 min 2 min 0,0 km/h (0 Bft)
12.10.2010 03:12 17,9 C 4,5 C 0,0 UV-I 0,0 C 47 % 88 % 0 % 1016,0 hPa 0,0 l/m 0,0 km/h (0 Bft) 0 min 2 min 0,0 km/h (0 Bft)
12.10.2010 03:14 17,8 C 4,5 C 0,0 UV-I 0,0 C 46 % 88 % 0 % 1016,0 hPa 0,0 l/m 0,0 km/h (0 Bft) 0 min 2 min 0,0 km/h (0 Bft)
12.10.2010 03:16 17,8 C 4,4 C 0,0 UV-I 0,0 C 46 % 88 % 0 % 1016,0 hPa 0,0 l/m 0,0 km/h (0 Bft) 0 min 2 min 0,0 km/h (0 Bft)
12.10.2010 03:18 17,8 C 4,4 C 0,0 UV-I 0,0 C 46 % 88 % 0 % 1016,0 hPa 0,0 l/m 0,0 km/h (0 Bft) 0 min 2 min 0,0 km/h (0 Bft)
12.10.2010 03:20 17,8 C 4,4 C 0,0 UV-I 0,0 C 46 % 88 % 0 % 1016,0 hPa 0,0 l/m 0,0 km/h (0 Bft) 0 min 0 min 0,0 km/h (0 Bft)
12.10.2010 03:22 17,8 C 4,5 C 0,0 UV-I 0,0 C 46 % 88 % 0 % 1016,0 hPa 0,0 l/m 0,0 km/h (0 Bft) 0 min 0 min 0,0 km/h (0 Bft)
12.10.2010 03:24 17,8 C 4,4 C 0,0 UV-I 0,0 C 46 % 88 % 0 % 1016,0 hPa 0,0 l/m 0,0 km/h (0 Bft) 0 min 0 min 0,0 km/h (0 Bft)
12.10.2010 03:26 17,8 C 4,4 C 0,0 UV-I 0,0 C 47 % 88 % 0 % 1015,9 hPa 0,0 l/m 0,0 km/h (0 Bft) 0 min 2 min 0,0 km/h (0 Bft)
12.10.2010 03:28 17,8 C 4,4 C 0,0 UV-I 0,0 C 47 % 89 % 0 % 1015,9 hPa 0,0 l/m 0,0 km/h (0 Bft) 0 min 2 min 0,0 km/h (0 Bft)
12.10.2010 03:30 17,8 C 4,5 C 0,0 UV-I 0,0 C 47 % 89 % 0 % 1015,9 hPa 0,0 l/m 0,4 km/h (0 Bft) 0 min 2 min 3,5 km/h (1 Bft)
12.10.2010 03:32 17,8 C 4,6 C 0,1 UV-I 0,0 C 47 % 89 % 0 % 1015,9 hPa 0,0 l/m 0,4 km/h (0 Bft) 0 min 2 min 0,0 km/h (0 Bft)
12.10.2010 03:34 17,7 C 4,6 C 0,1 UV-I 0,0 C 47 % 89 % 0 % 1015,9 hPa 0,0 l/m 0,4 km/h (0 Bft) 0 min 2 min 0,0 km/h (0 Bft)
12.10.2010 03:36 17,7 C 4,7 C 0,1 UV-I 0,0 C 47 % 89 % 0 % 1015,9 hPa 0,0 l/m 0,4 km/h (0 Bft) 0 min 2 min 0,0 km/h (0 Bft)
12.10.2010 03:38 17,7 C 4,6 C 0,1 UV-I 0,0 C 47 % 89 % 0 % 1015,9 hPa 0,0 l/m 0,4 km/h (0 Bft) 0 min 2 min 0,0 km/h (0 Bft)
12.10.2010 03:40 17,7 C 4,5 C 0,1 UV-I 0,0 C 47 % 89 % 0 % 1015,9 hPa 0,0 l/m 0,4 km/h (0 Bft) 0 min 2 min 0,0 km/h (0 Bft)
12.10.2010 03:42 17,7 C 4,5 C 0,0 UV-I 0,0 C 47 % 89 % 0 % 1015,9 hPa 0,0 l/m 0,0 km/h (0 Bft) 0 min 2 min 0,0 km/h (0 Bft)
12.10.2010 03:44 17,7 C 4,5 C 0,0 UV-I 0,0 C 47 % 89 % 0 % 1015,9 hPa 0,0 l/m 0,0 km/h (0 Bft) 0 min 2 min 0,0 km/h (0 Bft)
12.10.2010 03:46 17,7 C 4,7 C 0,0 UV-I 0,0 C 47 % 89 % 0 % 1016,0 hPa 0,0 l/m 0,0 km/h (0 Bft) 0 min 2 min 0,0 km/h (0 Bft)
12.10.2010 03:48 17,7 C 4,7 C 0,0 UV-I 0,0 C 47 % 89 % 0 % 1016,0 hPa 0,0 l/m 0,0 km/h (0 Bft) 0 min 2 min 0,0 km/h (0 Bft)
12.10.2010 03:50 17,7 C 4,7 C 0,0 UV-I 0,0 C 47 % 89 % 0 % 1016,0 hPa 0,0 l/m 0,0 km/h (0 Bft) 0 min 2 min 0,0 km/h (0 Bft)
12.10.2010 03:52 17,7 C 4,6 C 0,0 UV-I 0,0 C 47 % 89 % 0 % 1016,0 hPa 0,0 l/m 0,0 km/h (0 Bft) 0 min 2 min 0,0 km/h (0 Bft)
12.10.2010 03:54 17,7 C 4,5 C 0,0 UV-I 0,0 C 47 % 89 % 0 % 1016,0 hPa 0,0 l/m 0,0 km/h (0 Bft) 0 min 2 min 0,0 km/h (0 Bft)
12.10.2010 03:56 17,6 C 4,5 C 0,0 UV-I 0,0 C 47 % 89 % 0 % 1016,0 hPa 0,0 l/m 0,0 km/h (0 Bft) 0 min 2 min 0,0 km/h (0 Bft)
12.10.2010 03:58 17,6 C 4,5 C 0,0 UV-I 0,0 C 47 % 89 % 0 % 1016,0 hPa 0,0 l/m 0,0 km/h (0 Bft) 0 min 2 min 0,0 km/h (0 Bft)
12.10.2010 04:00 17,6 C 4,5 C 0,0 UV-I 0,0 C 47 % 90 % 0 % 1016,0 hPa 0,0 l/m 0,0 km/h (0 Bft) 0 min 2 min 0,0 km/h (0 Bft)
12.10.2010 04:02 17,6 C 4,4 C 0,0 UV-I 0,0 C 47 % 90 % 0 % 1016,0 hPa 0,0 l/m 0,0 km/h (0 Bft) 0 min 2 min 0,0 km/h (0 Bft)
12.10.2010 04:04 17,6 C 4,4 C 0,0 UV-I 0,0 C 47 % 90 % 0 % 1016,0 hPa 0,0 l/m 0,0 km/h (0 Bft) 0 min 2 min 0,0 km/h (0 Bft)
12.10.2010 04:06 17,6 C 4,4 C 0,0 UV-I 0,0 C 47 % 90 % 0 % 1015,8 hPa 0,0 l/m 0,0 km/h (0 Bft) 0 min 2 min 0,0 km/h (0 Bft)
12.10.2010 04:08 17,6 C 4,4 C 0,0 UV-I 0,0 C 47 % 90 % 0 % 1015,8 hPa 0,0 l/m 0,0 km/h (0 Bft) 0 min 2 min 0,0 km/h (0 Bft)
12.10.2010 04:10 17,6 C 4,5 C 0,0 UV-I 0,0 C 47 % 90 % 0 % 1015,8 hPa 0,0 l/m 0,0 km/h (0 Bft) 0 min 2 min 0,0 km/h (0 Bft)
12.10.2010 04:12 17,6 C 4,4 C 0,1 UV-I 0,0 C 47 % 90 % 0 % 1015,8 hPa 0,0 l/m 0,0 km/h (0 Bft) 0 min 2 min 0,0 km/h (0 Bft)
12.10.2010 04:14 17,6 C 4,4 C 0,1 UV-I 0,0 C 47 % 90 % 0 % 1015,8 hPa 0,0 l/m 0,0 km/h (0 Bft) 0 min 2 min 0,0 km/h (0 Bft)
12.10.2010 04:16 17,6 C 4,4 C 0,0 UV-I 0,0 C 47 % 90 % 0 % 1015,8 hPa 0,0 l/m 0,0 km/h (0 Bft) 0 min 2 min 0,0 km/h (0 Bft)
12.10.2010 04:18 17,6 C 4,3 C 0,0 UV-I 0,0 C 47 % 90 % 0 % 1015,8 hPa 0,0 l/m 0,0 km/h (0 Bft) 0 min 2 min 0,0 km/h (0 Bft)
12.10.2010 04:20 17,6 C 4,3 C 0,0 UV-I 0,0 C 47 % 90 % 0 % 1015,8 hPa 0,0 l/m 0,0 km/h (0 Bft) 0 min 2 min 0,0 km/h (0 Bft)
12.10.2010 04:22 17,6 C 4,3 C 0,0 UV-I 0,0 C 47 % 90 % 0 % 1015,8 hPa 0,0 l/m 0,0 km/h (0 Bft) 0 min 2 min 0,0 km/h (0 Bft)
12.10.2010 04:24 17,6 C 4,3 C 0,0 UV-I 0,0 C 47 % 90 % 0 % 1015,8 hPa 0,0 l/m 0,0 km/h (0 Bft) 0 min 2 min 0,0 km/h (0 Bft)
12.10.2010 04:26 17,6 C 4,3 C 0,0 UV-I 0,0 C 47 % 90 % 0 % 1016,2 hPa 0,0 l/m 0,8 km/h (0 Bft) 0 min 2 min 3,5 km/h (1 Bft)
12.10.2010 04:28 17,6 C 4,3 C 0,0 UV-I 0,0 C 47 % 90 % 0 % 1016,2 hPa 0,0 l/m 0,8 km/h (0 Bft) 0 min 2 min 3,9 km/h (1 Bft)
12.10.2010 04:30 17,6 C 4,3 C 0,0 UV-I 0,0 C 47 % 90 % 0 % 1016,2 hPa 0,0 l/m 0,8 km/h (0 Bft) 0 min 2 min 3,2 km/h (1 Bft)
12.10.2010 04:32 17,6 C 4,3 C 0,0 UV-I 0,0 C 47 % 90 % 0 % 1016,2 hPa 0,0 l/m 1,2 km/h (1 Bft) 0 min 2 min 0,0 km/h (0 Bft)
12.10.2010 04:34 17,6 C 4,3 C 0,0 UV-I 0,0 C 47 % 90 % 0 % 1016,2 hPa 0,0 l/m 1,2 km/h (1 Bft) 0 min 2 min 0,0 km/h (0 Bft)
12.10.2010 04:36 17,6 C 4,3 C 0,0 UV-I 0,0 C 47 % 90 % 0 % 1016,2 hPa 0,0 l/m 0,8 km/h (0 Bft) 0 min 2 min 0,0 km/h (0 Bft)
12.10.2010 04:38 17,6 C 4,3 C 0,0 UV-I 0,0 C 47 % 90 % 0 % 1016,2 hPa 0,0 l/m 0,4 km/h (0 Bft) 0 min 2 min 0,0 km/h (0 Bft)
12.10.2010 04:40 17,5 C 4,2 C 0,0 UV-I 0,0 C 47 % 90 % 0 % 1016,2 hPa 0,0 l/m 0,0 km/h (0 Bft) 0 min 2 min 0,0 km/h (0 Bft)
12.10.2010 04:42 17,5 C 4,1 C 0,0 UV-I 0,0 C 47 % 90 % 0 % 1016,2 hPa 0,0 l/m 0,0 km/h (0 Bft) 0 min 2 min 0,0 km/h (0 Bft)
12.10.2010 04:44 17,5 C 4,1 C 0,0 UV-I 0,0 C 47 % 90 % 0 % 1016,2 hPa 0,0 l/m 0,0 km/h (0 Bft) 0 min 2 min 0,0 km/h (0 Bft)
12.10.2010 04:46 17,5 C 4,1 C 0,0 UV-I 0,0 C 47 % 90 % 0 % 1016,2 hPa 0,0 l/m 0,0 km/h (0 Bft) 0 min 2 min 0,0 km/h (0 Bft)
12.10.2010 04:48 17,5 C 4,0 C 0,0 UV-I 0,0 C 47 % 90 % 0 % 1016,2 hPa 0,0 l/m 0,0 km/h (0 Bft) 0 min 2 min 0,0 km/h (0 Bft)
12.10.2010 04:50 17,5 C 4,0 C 0,0 UV-I 0,0 C 47 % 90 % 0 % 1016,2 hPa 0,0 l/m 0,0 km/h (0 Bft) 0 min 2 min 0,0 km/h (0 Bft)
12.10.2010 04:52 17,5 C 4,1 C 0,0 UV-I 0,0 C 47 % 90 % 0 % 1016,2 hPa 0,0 l/m 0,0 km/h (0 Bft) 0 min 2 min 0,0 km/h (0 Bft)
12.10.2010 04:54 17,5 C 4,1 C 0,0 UV-I 0,0 C 47 % 90 % 0 % 1016,2 hPa 0,0 l/m 0,0 km/h (0 Bft) 0 min 2 min 0,0 km/h (0 Bft)
12.10.2010 04:56 17,4 C 4,1 C 0,1 UV-I 0,0 C 47 % 90 % 0 % 1016,2 hPa 0,0 l/m 0,0 km/h (0 Bft) 0 min 2 min 0,0 km/h (0 Bft)
12.10.2010 04:58 17,4 C 4,3 C 0,1 UV-I 0,0 C 47 % 90 % 0 % 1016,2 hPa 0,0 l/m 0,0 km/h (0 Bft) 0 min 2 min 0,0 km/h (0 Bft)
12.10.2010 05:00 17,4 C 4,3 C 0,1 UV-I 0,0 C 47 % 91 % 0 % 1016,2 hPa 0,0 l/m 0,0 km/h (0 Bft) 0 min 2 min 0,0 km/h (0 Bft)
12.10.2010 05:02 17,4 C 4,3 C 0,1 UV-I 0,0 C 47 % 91 % 0 % 1016,2 hPa 0,0 l/m 0,0 km/h (0 Bft) 0 min 2 min 3,5 km/h (1 Bft)
12.10.2010 05:04 17,4 C 4,3 C 0,1 UV-I 0,0 C 47 % 91 % 0 % 1016,2 hPa 0,0 l/m 0,0 km/h (0 Bft) 0 min 2 min 0,0 km/h (0 Bft)
12.10.2010 05:06 17,4 C 4,3 C 0,0 UV-I 0,0 C 47 % 90 % 0 % 1015,8 hPa 0,0 l/m 0,0 km/h (0 Bft) 0 min 2 min 0,0 km/h (0 Bft)
12.10.2010 05:08 17,4 C 4,1 C 0,0 UV-I 0,0 C 47 % 91 % 0 % 1015,8 hPa 0,0 l/m 0,0 km/h (0 Bft) 0 min 2 min 0,0 km/h (0 Bft)
12.10.2010 05:10 17,4 C 4,1 C 0,0 UV-I 0,0 C 47 % 90 % 0 % 1015,8 hPa 0,0 l/m 0,0 km/h (0 Bft) 0 min 2 min 0,0 km/h (0 Bft)
12.10.2010 05:12 17,4 C 4,1 C 0,0 UV-I 0,0 C 47 % 90 % 0 % 1015,8 hPa 0,0 l/m 0,0 km/h (0 Bft) 0 min 2 min 0,0 km/h (0 Bft)
12.10.2010 05:14 17,4 C 4,0 C 0,0 UV-I 0,0 C 47 % 90 % 0 % 1015,8 hPa 0,0 l/m 0,0 km/h (0 Bft) 0 min 2 min 0,0 km/h (0 Bft)
12.10.2010 05:16 17,4 C 4,0 C 0,0 UV-I 0,0 C 47 % 90 % 0 % 1015,8 hPa 0,0 l/m 0,0 km/h (0 Bft) 0 min 2 min 0,0 km/h (0 Bft)
12.10.2010 05:18 17,4 C 4,0 C 0,0 UV-I 0,0 C 47 % 91 % 0 % 1015,8 hPa 0,0 l/m 0,0 km/h (0 Bft) 0 min 2 min 0,0 km/h (0 Bft)
12.10.2010 05:20 17,4 C 4,1 C 0,0 UV-I 0,0 C 47 % 90 % 0 % 1015,8 hPa 0,0 l/m 0,0 km/h (0 Bft) 0 min 2 min 0,0 km/h (0 Bft)
12.10.2010 05:22 17,4 C 4,0 C 0,1 UV-I 0,0 C 47 % 91 % 0 % 1015,8 hPa 0,0 l/m 0,0 km/h (0 Bft) 0 min 2 min 0,0 km/h (0 Bft)
12.10.2010 05:24 17,2 C 4,0 C 0,1 UV-I 0,0 C 47 % 91 % 0 % 1015,8 hPa 0,0 l/m 0,0 km/h (0 Bft) 0 min 2 min 0,0 km/h (0 Bft)
12.10.2010 05:26 17,2 C 4,0 C 0,0 UV-I 0,0 C 47 % 91 % 0 % 1015,7 hPa 0,0 l/m 0,0 km/h (0 Bft) 0 min 2 min 0,0 km/h (0 Bft)
12.10.2010 05:28 17,2 C 4,1 C 0,0 UV-I 0,0 C 47 % 91 % 0 % 1015,7 hPa 0,0 l/m 0,0 km/h (0 Bft) 0 min 2 min 3,5 km/h (1 Bft)
12.10.2010 05:30 17,2 C 4,1 C 0,0 UV-I 0,0 C 47 % 91 % 0 % 1015,7 hPa 0,0 l/m 0,0 km/h (0 Bft) 0 min 2 min 0,0 km/h (0 Bft)
12.10.2010 05:32 17,3 C 4,1 C 0,0 UV-I 0,0 C 47 % 91 % 0 % 1015,7 hPa 0,0 l/m 0,0 km/h (0 Bft) 0 min 2 min 0,0 km/h (0 Bft)
12.10.2010 05:34 17,2 C 4,3 C 0,0 UV-I 0,0 C 47 % 91 % 0 % 1015,7 hPa 0,0 l/m 0,4 km/h (0 Bft) 0 min 2 min 0,0 km/h (0 Bft)
12.10.2010 05:36 17,3 C 4,3 C 0,0 UV-I 0,0 C 47 % 91 % 0 % 1015,7 hPa 0,0 l/m 0,4 km/h (0 Bft) 0 min 2 min 0,0 km/h (0 Bft)
12.10.2010 05:38 17,3 C 4,3 C 0,0 UV-I 0,0 C 47 % 91 % 0 % 1015,7 hPa 0,0 l/m 0,4 km/h (0 Bft) 0 min 2 min 0,0 km/h (0 Bft)
12.10.2010 05:40 17,3 C 4,3 C 0,0 UV-I 0,0 C 47 % 91 % 0 % 1015,7 hPa 0,0 l/m 0,4 km/h (0 Bft) 0 min 2 min 0,0 km/h (0 Bft)
12.10.2010 05:42 17,3 C 4,2 C 0,0 UV-I 0,0 C 47 % 91 % 0 % 1015,7 hPa 0,0 l/m 0,4 km/h (0 Bft) 0 min 2 min 0,0 km/h (0 Bft)
12.10.2010 05:44 17,2 C 4,2 C 0,0 UV-I 0,0 C 47 % 91 % 0 % 1015,7 hPa 0,0 l/m 0,4 km/h (0 Bft) 0 min 2 min 0,0 km/h (0 Bft)
12.10.2010 05:46 17,2 C 4,1 C 0,0 UV-I 0,0 C 47 % 91 % 0 % 1016,2 hPa 0,0 l/m 0,0 km/h (0 Bft) 0 min 2 min 0,0 km/h (0 Bft)
12.10.2010 05:48 17,2 C 4,1 C 0,0 UV-I 0,0 C 47 % 91 % 0 % 1016,2 hPa 0,0 l/m 0,0 km/h (0 Bft) 0 min 2 min 0,0 km/h (0 Bft)
12.10.2010 05:50 17,2 C 4,0 C 0,0 UV-I 0,0 C 47 % 91 % 0 % 1016,2 hPa 0,0 l/m 0,0 km/h (0 Bft) 0 min 2 min 0,0 km/h (0 Bft)
12.10.2010 05:52 17,2 C 4,0 C 0,0 UV-I 0,0 C 47 % 91 % 0 % 1016,2 hPa 0,0 l/m 0,0 km/h (0 Bft) 0 min 2 min 0,0 km/h (0 Bft)
12.10.2010 05:54 17,2 C 4,0 C 0,0 UV-I 0,0 C 47 % 91 % 0 % 1016,2 hPa 0,0 l/m 0,0 km/h (0 Bft) 0 min 2 min 0,0 km/h (0 Bft)
12.10.2010 05:56 17,2 C 4,0 C 0,0 UV-I 0,0 C 47 % 91 % 0 % 1016,2 hPa 0,0 l/m 0,0 km/h (0 Bft) 0 min 2 min 0,0 km/h (0 Bft)
12.10.2010 05:58 17,2 C 4,0 C 0,0 UV-I 0,0 C 47 % 91 % 0 % 1016,2 hPa 0,0 l/m 0,0 km/h (0 Bft) 0 min 2 min 0,0 km/h (0 Bft)
12.10.2010 06:00 17,2 C 4,1 C 0,0 UV-I 0,0 C 47 % 91 % 0 % 1016,2 hPa 0,0 l/m 0,0 km/h (0 Bft) 0 min 2 min 0,0 km/h (0 Bft)
12.10.2010 06:02 17,2 C 4,1 C 0,0 UV-I 0,0 C 47 % 91 % 0 % 1016,2 hPa 0,0 l/m 0,0 km/h (0 Bft) 0 min 2 min 0,0 km/h (0 Bft)
12.10.2010 06:04 17,2 C 4,0 C 0,0 UV-I 0,0 C 47 % 91 % 0 % 1016,2 hPa 0,0 l/m 0,0 km/h (0 Bft) 0 min 2 min 0,0 km/h (0 Bft)
12.10.2010 06:06 17,2 C 4,0 C 0,0 UV-I 0,0 C 47 % 91 % 0 % 1016,4 hPa 0,0 l/m 0,0 km/h (0 Bft) 0 min 2 min 0,0 km/h (0 Bft)
12.10.2010 06:08 17,2 C 4,0 C 0,0 UV-I 0,0 C 47 % 91 % 0 % 1016,4 hPa 0,0 l/m 0,0 km/h (0 Bft) 0 min 2 min 0,0 km/h (0 Bft)
12.10.2010 06:10 17,2 C 4,0 C 0,0 UV-I 0,0 C 47 % 91 % 0 % 1016,4 hPa 0,0 l/m 0,0 km/h (0 Bft) 0 min 2 min 0,0 km/h (0 Bft)
12.10.2010 06:12 17,2 C 4,0 C 0,0 UV-I 0,0 C 47 % 92 % 0 % 1016,4 hPa 0,0 l/m 0,0 km/h (0 Bft) 0 min 2 min 0,0 km/h (0 Bft)
12.10.2010 06:14 17,2 C 4,0 C 0,0 UV-I 0,0 C 47 % 91 % 0 % 1016,4 hPa 0,0 l/m 0,0 km/h (0 Bft) 0 min 2 min 0,0 km/h (0 Bft)
12.10.2010 06:16 17,2 C 4,1 C 0,0 UV-I 0,0 C 47 % 92 % 0 % 1016,4 hPa 0,0 l/m 0,0 km/h (0 Bft) 0 min 2 min 0,0 km/h (0 Bft)
12.10.2010 06:18 17,2 C 4,1 C 0,0 UV-I 0,0 C 47 % 91 % 0 % 1016,4 hPa 0,0 l/m 0,0 km/h (0 Bft) 0 min 2 min 0,0 km/h (0 Bft)
12.10.2010 06:20 17,2 C 4,0 C 0,0 UV-I 0,0 C 47 % 92 % 0 % 1016,4 hPa 0,0 l/m 0,0 km/h (0 Bft) 0 min 2 min 0,0 km/h (0 Bft)
12.10.2010 06:22 17,2 C 4,0 C 0,0 UV-I 0,0 C 47 % 92 % 0 % 1016,4 hPa 0,0 l/m 0,0 km/h (0 Bft) 0 min 2 min 0,0 km/h (0 Bft)
12.10.2010 06:24 17,2 C 3,9 C 0,0 UV-I 0,0 C 47 % 91 % 0 % 1016,4 hPa 0,0 l/m 0,0 km/h (0 Bft) 0 min 2 min 0,0 km/h (0 Bft)
12.10.2010 06:26 17,1 C 3,9 C 0,0 UV-I 0,0 C 47 % 91 % 0 % 1016,5 hPa 0,0 l/m 0,0 km/h (0 Bft) 0 min 2 min 0,0 km/h (0 Bft)
12.10.2010 06:28 17,2 C 3,9 C 0,0 UV-I 0,0 C 47 % 92 % 0 % 1016,5 hPa 0,0 l/m 0,0 km/h (0 Bft) 0 min 2 min 0,0 km/h (0 Bft)
12.10.2010 06:30 17,1 C 3,8 C 0,0 UV-I 0,0 C 47 % 91 % 0 % 1016,5 hPa 0,0 l/m 0,0 km/h (0 Bft) 0 min 2 min 0,0 km/h (0 Bft)
12.10.2010 06:32 17,1 C 3,9 C 0,0 UV-I 0,0 C 47 % 91 % 0 % 1016,5 hPa 0,0 l/m 0,0 km/h (0 Bft) 0 min 2 min 0,0 km/h (0 Bft)
12.10.2010 06:34 17,1 C 3,9 C 0,0 UV-I 0,0 C 47 % 91 % 0 % 1016,5 hPa 0,0 l/m 0,0 km/h (0 Bft) 0 min 2 min 0,0 km/h (0 Bft)
12.10.2010 06:36 17,1 C 3,8 C 0,0 UV-I 0,0 C 47 % 92 % 0 % 1016,5 hPa 0,0 l/m 0,0 km/h (0 Bft) 0 min 2 min 0,0 km/h (0 Bft)
12.10.2010 06:38 17,1 C 3,9 C 0,0 UV-I 0,0 C 47 % 92 % 0 % 1016,5 hPa 0,0 l/m 0,0 km/h (0 Bft) 0 min 2 min 0,0 km/h (0 Bft)
12.10.2010 06:40 17,1 C 3,8 C 0,0 UV-I 0,0 C 47 % 92 % 0 % 1016,5 hPa 0,0 l/m 0,0 km/h (0 Bft) 0 min 2 min 0,0 km/h (0 Bft)
12.10.2010 06:42 17,1 C 3,9 C 0,0 UV-I 0,0 C 47 % 92 % 0 % 1016,5 hPa 0,0 l/m 0,0 km/h (0 Bft) 0 min 2 min 0,0 km/h (0 Bft)
12.10.2010 06:44 17,1 C 4,0 C 0,0 UV-I 0,0 C 47 % 92 % 0 % 1016,5 hPa 0,0 l/m 0,4 km/h (0 Bft) 0 min 2 min 4,2 km/h (1 Bft)
12.10.2010 06:46 17,1 C 4,0 C 0,0 UV-I 0,0 C 47 % 92 % 0 % 1016,4 hPa 0,0 l/m 0,4 km/h (0 Bft) 0 min 2 min 4,8 km/h (1 Bft)
12.10.2010 06:48 17,1 C 4,1 C 0,0 UV-I 0,0 C 47 % 92 % 0 % 1016,4 hPa 0,0 l/m 1,2 km/h (1 Bft) 0 min 2 min 5,5 km/h (1 Bft)
12.10.2010 06:50 17,0 C 4,0 C 0,0 UV-I 0,0 C 47 % 92 % 0 % 1016,4 hPa 0,0 l/m 1,6 km/h (1 Bft) 0 min 2 min 3,9 km/h (1 Bft)
12.10.2010 06:52 17,1 C 4,1 C 0,0 UV-I 0,0 C 47 % 92 % 0 % 1016,4 hPa 0,0 l/m 2,4 km/h (1 Bft) 0 min 2 min 4,5 km/h (1 Bft)
12.10.2010 06:54 17,0 C 4,1 C 0,0 UV-I 0,0 C 48 % 92 % 0 % 1016,4 hPa 0,0 l/m 3,2 km/h (1 Bft) 0 min 2 min 4,5 km/h (1 Bft)
12.10.2010 06:56 17,0 C 4,1 C 0,0 UV-I 0,0 C 48 % 92 % 0 % 1016,4 hPa 0,0 l/m 3,6 km/h (1 Bft) 0 min 2 min 6,1 km/h (2 Bft)
12.10.2010 06:58 17,0 C 4,1 C 0,0 UV-I 0,0 C 48 % 92 % 0 % 1016,4 hPa 0,0 l/m 4,0 km/h (1 Bft) 0 min 2 min 3,9 km/h (1 Bft)
12.10.2010 07:00 17,0 C 4,1 C 0,0 UV-I 0,0 C 48 % 92 % 0 % 1016,4 hPa 0,0 l/m 4,0 km/h (1 Bft) 0 min 2 min 4,5 km/h (1 Bft)
12.10.2010 07:02 17,0 C 4,1 C 0,0 UV-I 0,0 C 48 % 92 % 0 % 1016,4 hPa 0,0 l/m 3,6 km/h (1 Bft) 0 min 2 min 3,2 km/h (1 Bft)
12.10.2010 07:04 17,1 C 4,1 C 0,0 UV-I 0,0 C 48 % 92 % 0 % 1016,4 hPa 0,0 l/m 3,6 km/h (1 Bft) 0 min 2 min 4,5 km/h (1 Bft)
12.10.2010 07:06 17,0 C 4,1 C 0,0 UV-I 0,0 C 48 % 92 % 0 % 1016,6 hPa 0,0 l/m 3,2 km/h (1 Bft) 0 min 2 min 0,0 km/h (0 Bft)
12.10.2010 07:08 17,0 C 4,1 C 0,0 UV-I 0,0 C 48 % 92 % 0 % 1016,6 hPa 0,0 l/m 2,4 km/h (1 Bft) 0 min 2 min 0,0 km/h (0 Bft)
12.10.2010 07:10 17,0 C 4,0 C 0,0 UV-I 0,0 C 48 % 92 % 0 % 1016,6 hPa 0,0 l/m 2,0 km/h (1 Bft) 0 min 2 min 3,9 km/h (1 Bft)
12.10.2010 07:12 17,0 C 4,0 C 0,0 UV-I 0,0 C 48 % 92 % 0 % 1016,6 hPa 0,0 l/m 1,6 km/h (1 Bft) 0 min 2 min 0,0 km/h (0 Bft)
12.10.2010 07:14 17,0 C 4,1 C 0,0 UV-I 0,0 C 48 % 92 % 0 % 1016,6 hPa 0,0 l/m 0,8 km/h (0 Bft) 0 min 2 min 0,0 km/h (0 Bft)
12.10.2010 07:16 17,0 C 4,0 C 0,0 UV-I 0,0 C 47 % 92 % 0 % 1016,6 hPa 0,0 l/m 0,0 km/h (0 Bft) 0 min 2 min 0,0 km/h (0 Bft)
12.10.2010 07:18 17,0 C 3,9 C 0,0 UV-I 0,0 C 47 % 92 % 0 % 1016,6 hPa 0,0 l/m 0,0 km/h (0 Bft) 0 min 2 min 0,0 km/h (0 Bft)
12.10.2010 07:20 17,0 C 3,9 C 0,0 UV-I 0,0 C 47 % 92 % 0 % 1016,6 hPa 0,0 l/m 0,0 km/h (0 Bft) 0 min 2 min 0,0 km/h (0 Bft)
12.10.2010 07:22 16,9 C 3,9 C 0,0 UV-I 0,0 C 47 % 92 % 0 % 1016,6 hPa 0,0 l/m 0,0 km/h (0 Bft) 0 min 2 min 0,0 km/h (0 Bft)
12.10.2010 07:24 16,9 C 3,9 C 0,0 UV-I 0,0 C 47 % 92 % 0 % 1016,6 hPa 0,0 l/m 0,0 km/h (0 Bft) 0 min 2 min 0,0 km/h (0 Bft)
12.10.2010 07:26 16,9 C 3,8 C 0,1 UV-I 0,0 C 47 % 92 % 0 % 1016,5 hPa 0,0 l/m 0,0 km/h (0 Bft) 0 min 2 min 0,0 km/h (0 Bft)
12.10.2010 07:28 16,9 C 3,8 C 0,1 UV-I 0,0 C 47 % 92 % 0 % 1016,5 hPa 0,0 l/m 0,0 km/h (0 Bft) 0 min 2 min 0,0 km/h (0 Bft)
12.10.2010 07:30 16,9 C 3,9 C 0,1 UV-I 0,0 C 47 % 92 % 0 % 1016,5 hPa 0,0 l/m 0,0 km/h (0 Bft) 0 min 2 min 0,0 km/h (0 Bft)
12.10.2010 07:32 16,9 C 3,9 C 0,0 UV-I 0,0 C 47 % 92 % 0 % 1016,5 hPa 0,0 l/m 0,0 km/h (0 Bft) 0 min 2 min 0,0 km/h (0 Bft)
12.10.2010 07:34 16,8 C 3,8 C 0,0 UV-I 0,0 C 47 % 92 % 0 % 1016,5 hPa 0,0 l/m 0,0 km/h (0 Bft) 0 min 2 min 0,0 km/h (0 Bft)
12.10.2010 07:36 16,9 C 3,7 C 0,0 UV-I 0,0 C 47 % 92 % 0 % 1016,5 hPa 0,0 l/m 0,0 km/h (0 Bft) 0 min 2 min 0,0 km/h (0 Bft)
12.10.2010 07:38 16,8 C 3,7 C 0,0 UV-I 0,0 C 47 % 92 % 0 % 1016,5 hPa 0,0 l/m 0,4 km/h (0 Bft) 0 min 2 min 3,9 km/h (1 Bft)
12.10.2010 07:40 16,9 C 3,7 C 0,0 UV-I 0,0 C 47 % 92 % 0 % 1016,5 hPa 0,0 l/m 0,4 km/h (0 Bft) 0 min 2 min 0,0 km/h (0 Bft)
12.10.2010 07:42 16,8 C 3,7 C 0,0 UV-I 0,0 C 48 % 92 % 0 % 1016,5 hPa 0,0 l/m 0,4 km/h (0 Bft) 0 min 2 min 4,8 km/h (1 Bft)
12.10.2010 07:44 16,8 C 3,7 C 0,0 UV-I 0,0 C 48 % 92 % 0 % 1016,5 hPa 0,0 l/m 0,8 km/h (0 Bft) 0 min 2 min 3,2 km/h (1 Bft)
12.10.2010 07:46 16,8 C 3,7 C 0,2 UV-I 0,0 C 48 % 92 % 0 % 1016,4 hPa 0,0 l/m 0,8 km/h (0 Bft) 0 min 2 min 0,0 km/h (0 Bft)
12.10.2010 07:48 16,8 C 3,8 C 0,2 UV-I 0,0 C 48 % 92 % 0 % 1016,4 hPa 0,0 l/m 0,8 km/h (0 Bft) 0 min 2 min 0,0 km/h (0 Bft)
12.10.2010 07:50 16,8 C 3,7 C 0,2 UV-I 0,0 C 48 % 92 % 0 % 1016,4 hPa 0,0 l/m 0,8 km/h (0 Bft) 0 min 2 min 0,0 km/h (0 Bft)
12.10.2010 07:52 16,8 C 3,7 C 0,2 UV-I 0,0 C 47 % 92 % 0 % 1016,4 hPa 0,0 l/m 1,2 km/h (1 Bft) 0 min 2 min 0,0 km/h (0 Bft)
12.10.2010 07:54 16,8 C 3,7 C 0,2 UV-I 0,0 C 48 % 92 % 0 % 1016,4 hPa 0,0 l/m 0,8 km/h (0 Bft) 0 min 2 min 0,0 km/h (0 Bft)
12.10.2010 07:56 16,8 C 3,7 C 0,2 UV-I 0,0 C 48 % 92 % 0 % 1016,4 hPa 0,0 l/m 0,4 km/h (0 Bft) 0 min 2 min 7,1 km/h (2 Bft)
12.10.2010 07:58 16,8 C 3,6 C 0,2 UV-I 0,0 C 47 % 92 % 0 % 1016,4 hPa 0,0 l/m 0,4 km/h (0 Bft) 0 min 2 min 0,0 km/h (0 Bft)
12.10.2010 08:00 16,8 C 3,6 C 0,2 UV-I 0,0 C 47 % 92 % 0 % 1016,4 hPa 0,0 l/m 0,4 km/h (0 Bft) 0 min 2 min 0,0 km/h (0 Bft)
12.10.2010 08:02 16,8 C 3,6 C 0,2 UV-I 0,0 C 48 % 92 % 0 % 1016,4 hPa 0,0 l/m 0,4 km/h (0 Bft) 0 min 2 min 0,0 km/h (0 Bft)
12.10.2010 08:04 16,8 C 3,5 C 0,2 UV-I 0,0 C 47 % 92 % 0 % 1016,4 hPa 0,0 l/m 0,0 km/h (0 Bft) 0 min 2 min 0,0 km/h (0 Bft)
12.10.2010 08:06 16,8 C 3,5 C 0,2 UV-I 0,0 C 47 % 92 % 0 % 1016,6 hPa 0,0 l/m 0,0 km/h (0 Bft) 0 min 2 min 0,0 km/h (0 Bft)
12.10.2010 08:08 16,8 C 3,5 C 0,2 UV-I 0,0 C 47 % 92 % 0 % 1016,6 hPa 0,0 l/m 0,0 km/h (0 Bft) 0 min 2 min 0,0 km/h (0 Bft)
12.10.2010 08:10 16,8 C 3,5 C 0,2 UV-I 0,0 C 47 % 92 % 0 % 1016,6 hPa 0,0 l/m 0,0 km/h (0 Bft) 0 min 2 min 0,0 km/h (0 Bft)
12.10.2010 08:12 16,8 C 3,5 C 0,3 UV-I 0,0 C 47 % 92 % 0 % 1016,6 hPa 0,0 l/m 0,4 km/h (0 Bft) 0 min 2 min 0,0 km/h (0 Bft)
12.10.2010 08:14 16,8 C 3,5 C 0,3 UV-I 0,0 C 47 % 92 % 0 % 1016,6 hPa 0,0 l/m 0,8 km/h (0 Bft) 0 min 2 min 4,2 km/h (1 Bft)
12.10.2010 08:16 16,8 C 3,5 C 0,3 UV-I 0,0 C 47 % 92 % 0 % 1016,6 hPa 0,0 l/m 0,8 km/h (0 Bft) 0 min 2 min 0,0 km/h (0 Bft)
12.10.2010 08:18 16,8 C 3,6 C 0,3 UV-I 0,0 C 47 % 92 % 0 % 1016,6 hPa 0,0 l/m 1,2 km/h (1 Bft) 0 min 2 min 0,0 km/h (0 Bft)
12.10.2010 08:20 16,8 C 3,6 C 0,3 UV-I 0,0 C 48 % 92 % 0 % 1016,6 hPa 0,0 l/m 1,6 km/h (1 Bft) 0 min 2 min 3,9 km/h (1 Bft)
12.10.2010 08:22 16,8 C 3,6 C 0,4 UV-I 0,0 C 48 % 92 % 0 % 1016,6 hPa 0,0 l/m 2,0 km/h (1 Bft) 0 min 2 min 4,2 km/h (1 Bft)
12.10.2010 08:24 16,8 C 3,6 C 0,4 UV-I 0,0 C 48 % 92 % 0 % 1016,6 hPa 0,0 l/m 1,6 km/h (1 Bft) 0 min 2 min 0,0 km/h (0 Bft)
12.10.2010 08:26 16,7 C 3,7 C 0,4 UV-I 0,0 C 47 % 92 % 0 % 1016,8 hPa 0,0 l/m 2,0 km/h (1 Bft) 0 min 2 min 5,8 km/h (2 Bft)
12.10.2010 08:28 16,8 C 3,6 C 0,4 UV-I 0,0 C 48 % 92 % 0 % 1016,8 hPa 0,0 l/m 2,0 km/h (1 Bft) 0 min 2 min 0,0 km/h (0 Bft)
12.10.2010 08:30 16,8 C 3,6 C 0,4 UV-I 0,0 C 48 % 92 % 0 % 1016,8 hPa 0,0 l/m 2,0 km/h (1 Bft) 0 min 2 min 7,4 km/h (2 Bft)
12.10.2010 08:32 16,8 C 3,7 C 0,4 UV-I 0,0 C 48 % 92 % 0 % 1016,8 hPa 0,0 l/m 2,8 km/h (1 Bft) 0 min 2 min 3,2 km/h (1 Bft)
12.10.2010 08:34 16,7 C 3,6 C 0,4 UV-I 0,0 C 47 % 93 % 0 % 1016,8 hPa 0,0 l/m 3,2 km/h (1 Bft) 0 min 2 min 8,0 km/h (2 Bft)
12.10.2010 08:36 16,7 C 3,7 C 0,4 UV-I 0,0 C 47 % 93 % 0 % 1016,8 hPa 0,0 l/m 4,0 km/h (1 Bft) 0 min 2 min 9,3 km/h (2 Bft)
12.10.2010 08:38 16,7 C 3,7 C 0,4 UV-I 0,0 C 47 % 93 % 0 % 1016,8 hPa 0,0 l/m 4,4 km/h (1 Bft) 0 min 2 min 6,8 km/h (2 Bft)
12.10.2010 08:40 16,7 C 3,7 C 0,4 UV-I 0,0 C 47 % 93 % 0 % 1016,8 hPa 0,0 l/m 5,6 km/h (1 Bft) 0 min 2 min 7,7 km/h (2 Bft)
12.10.2010 08:42 16,7 C 3,9 C 0,4 UV-I 0,0 C 47 % 93 % 0 % 1016,8 hPa 0,0 l/m 6,0 km/h (2 Bft) 0 min 2 min 4,5 km/h (1 Bft)
12.10.2010 08:44 16,7 C 3,9 C 0,4 UV-I 0,0 C 48 % 93 % 0 % 1016,8 hPa 0,0 l/m 6,4 km/h (2 Bft) 0 min 2 min 7,7 km/h (2 Bft)
12.10.2010 08:46 16,7 C 3,9 C 0,4 UV-I 0,0 C 48 % 93 % 0 % 1016,8 hPa 0,0 l/m 6,8 km/h (2 Bft) 0 min 2 min 12,2 km/h (2 Bft)
12.10.2010 08:48 16,8 C 3,9 C 0,4 UV-I 0,0 C 48 % 93 % 0 % 1016,8 hPa 0,0 l/m 6,8 km/h (2 Bft) 0 min 2 min 4,2 km/h (1 Bft)
12.10.2010 08:50 16,8 C 3,9 C 0,4 UV-I 0,0 C 48 % 93 % 0 % 1016,8 hPa 0,0 l/m 6,0 km/h (2 Bft) 0 min 2 min 3,9 km/h (1 Bft)
12.10.2010 08:52 16,7 C 3,9 C 0,4 UV-I 0,0 C 49 % 93 % 0 % 1016,8 hPa 0,0 l/m 4,8 km/h (1 Bft) 0 min 2 min 3,9 km/h (1 Bft)
12.10.2010 08:54 16,8 C 3,8 C 0,4 UV-I 0,0 C 49 % 93 % 0 % 1016,8 hPa 0,0 l/m 5,2 km/h (1 Bft) 0 min 2 min 5,1 km/h (1 Bft)
12.10.2010 08:56 16,8 C 3,9 C 0,4 UV-I 0,0 C 49 % 93 % 0 % 1016,8 hPa 0,0 l/m 5,2 km/h (1 Bft) 0 min 2 min 10,3 km/h (2 Bft)
12.10.2010 08:58 16,8 C 3,9 C 0,4 UV-I 0,0 C 49 % 93 % 0 % 1016,8 hPa 0,0 l/m 4,8 km/h (1 Bft) 0 min 2 min 4,8 km/h (1 Bft)
12.10.2010 09:00 16,8 C 3,9 C 0,4 UV-I 0,0 C 49 % 93 % 0 % 1016,8 hPa 0,0 l/m 4,8 km/h (1 Bft) 0 min 2 min 3,9 km/h (1 Bft)
12.10.2010 09:02 16,8 C 3,9 C 0,5 UV-I 0,0 C 49 % 93 % 0 % 1016,8 hPa 0,0 l/m 5,2 km/h (1 Bft) 0 min 2 min 3,5 km/h (1 Bft)
12.10.2010 09:04 16,8 C 3,9 C 0,5 UV-I 0,0 C 49 % 93 % 0 % 1016,8 hPa 0,0 l/m 5,6 km/h (1 Bft) 0 min 2 min 7,4 km/h (2 Bft)
12.10.2010 09:06 16,8 C 3,9 C 0,5 UV-I 0,0 C 49 % 93 % 0 % 1016,8 hPa 0,0 l/m 6,0 km/h (2 Bft) 0 min 2 min 7,4 km/h (2 Bft)
12.10.2010 09:08 16,8 C 4,0 C 0,5 UV-I 0,0 C 49 % 93 % 0 % 1016,8 hPa 0,0 l/m 5,6 km/h (1 Bft) 0 min 2 min 5,8 km/h (2 Bft)
12.10.2010 09:10 16,8 C 4,0 C 0,5 UV-I 0,0 C 49 % 93 % 0 % 1016,8 hPa 0,0 l/m 6,8 km/h (2 Bft) 0 min 2 min 10,3 km/h (2 Bft)
12.10.2010 09:12 16,8 C 4,1 C 0,5 UV-I 0,0 C 49 % 93 % 0 % 1016,8 hPa 0,0 l/m 7,2 km/h (2 Bft) 0 min 2 min 7,7 km/h (2 Bft)
12.10.2010 09:14 16,8 C 4,0 C 0,5 UV-I 0,0 C 49 % 93 % 0 % 1016,8 hPa 0,0 l/m 7,6 km/h (2 Bft) 0 min 2 min 9,7 km/h (2 Bft)
12.10.2010 09:16 16,8 C 4,0 C 0,5 UV-I 0,0 C 49 % 94 % 0 % 1016,8 hPa 0,0 l/m 7,6 km/h (2 Bft) 0 min 2 min 13,8 km/h (3 Bft)
12.10.2010 09:18 16,8 C 4,1 C 0,5 UV-I 0,0 C 49 % 93 % 0 % 1016,8 hPa 0,0 l/m 8,0 km/h (2 Bft) 0 min 2 min 9,3 km/h (2 Bft)
12.10.2010 09:20 16,8 C 4,1 C 0,5 UV-I 0,0 C 49 % 94 % 0 % 1016,8 hPa 0,0 l/m 8,8 km/h (2 Bft) 0 min 2 min 10,3 km/h (2 Bft)
12.10.2010 09:22 16,8 C 4,2 C 0,5 UV-I 0,0 C 49 % 94 % 0 % 1016,8 hPa 0,0 l/m 8,4 km/h (2 Bft) 0 min 2 min 5,8 km/h (2 Bft)
12.10.2010 09:24 16,8 C 4,3 C 0,5 UV-I 0,0 C 49 % 94 % 0 % 1016,8 hPa 0,0 l/m 8,0 km/h (2 Bft) 0 min 2 min 5,8 km/h (2 Bft)
12.10.2010 09:26 16,8 C 4,2 C 0,6 UV-I 0,0 C 50 % 94 % 0 % 1016,9 hPa 0,0 l/m 8,4 km/h (2 Bft) 0 min 2 min 6,1 km/h (2 Bft)
12.10.2010 09:28 16,8 C 4,2 C 0,6 UV-I 0,0 C 50 % 94 % 0 % 1016,9 hPa 0,0 l/m 7,2 km/h (2 Bft) 0 min 2 min 0,0 km/h (0 Bft)
12.10.2010 09:30 16,8 C 4,3 C 0,6 UV-I 0,0 C 50 % 94 % 0 % 1016,9 hPa 0,0 l/m 7,2 km/h (2 Bft) 0 min 2 min 9,7 km/h (2 Bft)
12.10.2010 09:32 16,8 C 4,4 C 0,6 UV-I 0,0 C 50 % 94 % 0 % 1016,9 hPa 0,0 l/m 6,4 km/h (2 Bft) 0 min 2 min 9,3 km/h (2 Bft)
12.10.2010 09:34 16,8 C 4,5 C 0,6 UV-I 0,0 C 50 % 94 % 0 % 1016,9 hPa 0,0 l/m 6,0 km/h (2 Bft) 0 min 2 min 5,8 km/h (2 Bft)
12.10.2010 09:36 16,8 C 4,4 C 0,6 UV-I 0,0 C 50 % 94 % 0 % 1016,9 hPa 0,0 l/m 6,4 km/h (2 Bft) 0 min 2 min 15,1 km/h (3 Bft)
12.10.2010 09:38 16,8 C 4,4 C 0,6 UV-I 0,0 C 50 % 94 % 0 % 1016,9 hPa 0,0 l/m 6,4 km/h (2 Bft) 0 min 2 min 6,8 km/h (2 Bft)
12.10.2010 09:40 16,8 C 4,5 C 0,6 UV-I 0,0 C 50 % 94 % 0 % 1016,9 hPa 0,0 l/m 7,2 km/h (2 Bft) 0 min 2 min 4,5 km/h (1 Bft)
12.10.2010 09:42 16,9 C 4,5 C 0,7 UV-I 0,0 C 50 % 94 % 0 % 1016,9 hPa 0,0 l/m 7,6 km/h (2 Bft) 0 min 2 min 9,0 km/h (2 Bft)
12.10.2010 09:44 16,9 C 4,5 C 0,7 UV-I 0,0 C 50 % 94 % 0 % 1016,9 hPa 0,0 l/m 8,0 km/h (2 Bft) 0 min 2 min 6,4 km/h (2 Bft)
12.10.2010 09:46 16,9 C 4,6 C 0,7 UV-I 0,0 C 50 % 94 % 0 % 1017,2 hPa 0,0 l/m 8,0 km/h (2 Bft) 0 min 2 min 4,5 km/h (1 Bft)
12.10.2010 09:48 16,9 C 4,7 C 0,7 UV-I 0,0 C 50 % 94 % 0 % 1017,2 hPa 0,0 l/m 7,2 km/h (2 Bft) 0 min 2 min 5,1 km/h (1 Bft)
12.10.2010 09:50 16,9 C 4,7 C 0,7 UV-I 0,0 C 50 % 94 % 0 % 1017,2 hPa 0,0 l/m 7,2 km/h (2 Bft) 0 min 2 min 6,1 km/h (2 Bft)
12.10.2010 09:52 16,9 C 4,6 C 0,7 UV-I 0,1 C 50 % 94 % 3 % 1017,2 hPa 0,0 l/m 6,8 km/h (2 Bft) 0 min 2 min 7,7 km/h (2 Bft)
12.10.2010 09:54 16,9 C 4,6 C 0,7 UV-I 0,2 C 50 % 94 % 6 % 1017,2 hPa 0,0 l/m 6,4 km/h (2 Bft) 0 min 2 min 5,8 km/h (2 Bft)
12.10.2010 09:56 16,9 C 4,8 C 0,8 UV-I 0,1 C 50 % 94 % 3 % 1017,2 hPa 0,0 l/m 5,6 km/h (1 Bft) 0 min 2 min 0,0 km/h (0 Bft)
12.10.2010 09:58 16,9 C 4,8 C 0,8 UV-I 0,2 C 50 % 94 % 6 % 1017,2 hPa 0,0 l/m 5,2 km/h (1 Bft) 0 min 2 min 3,9 km/h (1 Bft)
12.10.2010 10:00 16,9 C 4,8 C 0,8 UV-I 0,2 C 50 % 94 % 6 % 1017,2 hPa 0,0 l/m 5,2 km/h (1 Bft) 0 min 2 min 7,4 km/h (2 Bft)
12.10.2010 10:02 17,0 C 4,7 C 0,9 UV-I 0,4 C 50 % 94 % 11 % 1017,2 hPa 0,0 l/m 5,2 km/h (1 Bft) 0 min 2 min 7,4 km/h (2 Bft)
12.10.2010 10:04 17,0 C 4,9 C 0,9 UV-I 0,2 C 50 % 94 % 6 % 1017,2 hPa 0,0 l/m 4,4 km/h (1 Bft) 0 min 2 min 3,2 km/h (1 Bft)
12.10.2010 10:06 17,0 C 4,8 C 0,9 UV-I 0,3 C 50 % 94 % 9 % 1017,3 hPa 0,0 l/m 3,6 km/h (1 Bft) 0 min 2 min 4,2 km/h (1 Bft)
12.10.2010 10:08 17,0 C 4,8 C 0,9 UV-I 0,4 C 50 % 94 % 11 % 1017,3 hPa 0,0 l/m 4,4 km/h (1 Bft) 0 min 2 min 11,6 km/h (2 Bft)
12.10.2010 10:10 17,0 C 4,9 C 0,9 UV-I 0,3 C 50 % 94 % 9 % 1017,3 hPa 0,0 l/m 5,6 km/h (1 Bft) 0 min 2 min 9,0 km/h (2 Bft)
12.10.2010 10:12 17,0 C 4,9 C 0,9 UV-I 0,3 C 50 % 94 % 9 % 1017,3 hPa 0,0 l/m 4,8 km/h (1 Bft) 0 min 2 min 6,8 km/h (2 Bft)
12.10.2010 10:14 17,0 C 4,8 C 0,9 UV-I 0,4 C 50 % 94 % 11 % 1017,3 hPa 0,0 l/m 5,2 km/h (1 Bft) 0 min 2 min 6,8 km/h (2 Bft)
12.10.2010 10:16 17,0 C 4,8 C 0,8 UV-I 0,4 C 50 % 94 % 11 % 1017,3 hPa 0,0 l/m 6,0 km/h (2 Bft) 0 min 2 min 9,0 km/h (2 Bft)
12.10.2010 10:18 17,0 C 4,8 C 0,8 UV-I 0,4 C 50 % 94 % 11 % 1017,3 hPa 0,0 l/m 7,2 km/h (2 Bft) 0 min 2 min 7,7 km/h (2 Bft)
12.10.2010 10:20 17,0 C 4,8 C 0,8 UV-I 0,3 C 50 % 94 % 9 % 1017,3 hPa 0,0 l/m 7,6 km/h (2 Bft) 0 min 2 min 8,0 km/h (2 Bft)
12.10.2010 10:22 17,0 C 4,7 C 0,9 UV-I 0,3 C 50 % 94 % 9 % 1017,3 hPa 0,0 l/m 8,0 km/h (2 Bft) 0 min 2 min 7,4 km/h (2 Bft)
12.10.2010 10:24 17,0 C 4,8 C 0,9 UV-I 0,2 C 50 % 94 % 6 % 1017,3 hPa 0,0 l/m 8,0 km/h (2 Bft) 0 min 2 min 6,4 km/h (2 Bft)
12.10.2010 10:26 17,1 C 4,9 C 0,9 UV-I 0,2 C 50 % 94 % 6 % 1017,4 hPa 0,0 l/m 7,6 km/h (2 Bft) 0 min 2 min 0,0 km/h (0 Bft)
12.10.2010 10:28 17,1 C 4,8 C 0,9 UV-I 0,3 C 50 % 94 % 9 % 1017,4 hPa 0,0 l/m 7,2 km/h (2 Bft) 0 min 2 min 6,8 km/h (2 Bft)
12.10.2010 10:30 17,0 C 4,8 C 0,9 UV-I 0,4 C 50 % 94 % 11 % 1017,4 hPa 0,0 l/m 6,0 km/h (2 Bft) 0 min 2 min 7,7 km/h (2 Bft)
12.10.2010 10:32 17,1 C 4,9 C 1,0 UV-I 0,3 C 50 % 94 % 9 % 1017,4 hPa 0,0 l/m 5,2 km/h (1 Bft) 0 min 2 min 4,2 km/h (1 Bft)
12.10.2010 10:34 17,1 C 4,8 C 1,0 UV-I 0,5 C 50 % 94 % 14 % 1017,4 hPa 0,0 l/m 4,4 km/h (1 Bft) 0 min 2 min 5,1 km/h (1 Bft)
12.10.2010 10:36 17,1 C 4,8 C 1,1 UV-I 0,5 C 50 % 94 % 14 % 1017,4 hPa 0,0 l/m 5,6 km/h (1 Bft) 0 min 2 min 10,9 km/h (2 Bft)
12.10.2010 10:38 17,1 C 4,8 C 1,1 UV-I 0,5 C 50 % 94 % 14 % 1017,4 hPa 0,0 l/m 6,8 km/h (2 Bft) 0 min 2 min 12,2 km/h (2 Bft)
12.10.2010 10:40 17,1 C 4,9 C 1,1 UV-I 0,3 C 50 % 94 % 9 % 1017,4 hPa 0,0 l/m 8,0 km/h (2 Bft) 0 min 2 min 5,8 km/h (2 Bft)
12.10.2010 10:42 17,1 C 4,9 C 1,1 UV-I 0,3 C 50 % 94 % 9 % 1017,4 hPa 0,0 l/m 8,0 km/h (2 Bft) 0 min 2 min 6,8 km/h (2 Bft)
12.10.2010 10:44 17,1 C 4,9 C 1,1 UV-I 0,3 C 50 % 94 % 9 % 1017,4 hPa 0,0 l/m 8,8 km/h (2 Bft) 0 min 2 min 10,0 km/h (2 Bft)
12.10.2010 10:46 17,1 C 4,9 C 1,1 UV-I 0,3 C 50 % 94 % 9 % 1017,2 hPa 0,0 l/m 8,4 km/h (2 Bft) 0 min 2 min 16,4 km/h (3 Bft)
12.10.2010 10:48 17,1 C 4,9 C 1,1 UV-I 0,5 C 50 % 94 % 14 % 1017,2 hPa 0,0 l/m 8,4 km/h (2 Bft) 0 min 2 min 8,7 km/h (2 Bft)
12.10.2010 10:50 17,1 C 5,0 C 1,1 UV-I 0,4 C 50 % 94 % 11 % 1017,2 hPa 0,0 l/m 8,0 km/h (2 Bft) 0 min 2 min 6,1 km/h (2 Bft)
12.10.2010 10:52 17,1 C 4,9 C 1,1 UV-I 0,5 C 50 % 94 % 14 % 1017,2 hPa 0,0 l/m 8,0 km/h (2 Bft) 0 min 2 min 3,5 km/h (1 Bft)
12.10.2010 10:54 17,1 C 5,0 C 1,1 UV-I 0,5 C 50 % 94 % 14 % 1017,2 hPa 0,0 l/m 7,2 km/h (2 Bft) 0 min 2 min 4,8 km/h (1 Bft)
12.10.2010 10:56 17,2 C 5,1 C 1,1 UV-I 0,5 C 50 % 94 % 14 % 1017,2 hPa 0,0 l/m 7,6 km/h (2 Bft) 0 min 2 min 7,1 km/h (2 Bft)
12.10.2010 10:58 17,2 C 5,0 C 1,1 UV-I 0,6 C 50 % 94 % 17 % 1017,2 hPa 0,0 l/m 7,2 km/h (2 Bft) 0 min 2 min 7,7 km/h (2 Bft)
12.10.2010 11:00 17,2 C 5,1 C 1,1 UV-I 0,5 C 50 % 94 % 14 % 1017,2 hPa 0,0 l/m 6,4 km/h (2 Bft) 0 min 2 min 8,4 km/h (2 Bft)
12.10.2010 11:02 17,2 C 5,0 C 1,1 UV-I 0,7 C 50 % 94 % 20 % 1017,2 hPa 0,0 l/m 6,8 km/h (2 Bft) 0 min 2 min 8,7 km/h (2 Bft)
12.10.2010 11:04 17,2 C 5,1 C 1,1 UV-I 0,6 C 50 % 94 % 17 % 1017,2 hPa 0,0 l/m 7,6 km/h (2 Bft) 0 min 2 min 7,1 km/h (2 Bft)
12.10.2010 11:06 17,2 C 5,1 C 1,2 UV-I 0,5 C 50 % 94 % 14 % 1017,2 hPa 0,0 l/m 8,4 km/h (2 Bft) 0 min 2 min 19,0 km/h (3 Bft)
12.10.2010 11:08 17,2 C 5,1 C 1,2 UV-I 0,5 C 50 % 94 % 14 % 1017,2 hPa 0,0 l/m 8,8 km/h (2 Bft) 0 min 2 min 8,0 km/h (2 Bft)
12.10.2010 11:10 17,2 C 5,2 C 1,2 UV-I 0,4 C 50 % 94 % 11 % 1017,2 hPa 0,0 l/m 8,8 km/h (2 Bft) 0 min 2 min 0,0 km/h (0 Bft)
12.10.2010 11:12 17,2 C 5,2 C 1,2 UV-I 0,7 C 50 % 94 % 20 % 1017,2 hPa 0,0 l/m 7,6 km/h (2 Bft) 0 min 2 min 3,9 km/h (1 Bft)
12.10.2010 11:14 17,2 C 5,3 C 1,2 UV-I 0,7 C 50 % 94 % 20 % 1017,2 hPa 0,0 l/m 6,4 km/h (2 Bft) 0 min 2 min 5,5 km/h (1 Bft)
12.10.2010 11:16 17,2 C 5,4 C 1,4 UV-I 0,7 C 50 % 94 % 20 % 1017,2 hPa 0,0 l/m 6,0 km/h (2 Bft) 0 min 2 min 10,9 km/h (2 Bft)
12.10.2010 11:18 17,2 C 5,5 C 1,4 UV-I 0,8 C 50 % 94 % 23 % 1017,2 hPa 0,0 l/m 5,2 km/h (1 Bft) 0 min 2 min 9,7 km/h (2 Bft)
12.10.2010 11:20 17,2 C 5,5 C 1,4 UV-I 0,9 C 50 % 94 % 26 % 1017,2 hPa 0,0 l/m 5,6 km/h (1 Bft) 0 min 2 min 10,0 km/h (2 Bft)
12.10.2010 11:22 17,2 C 5,3 C 1,5 UV-I 1,1 C 50 % 94 % 31 % 1017,2 hPa 0,0 l/m 6,4 km/h (2 Bft) 0 min 2 min 13,5 km/h (3 Bft)
12.10.2010 11:24 17,2 C 5,5 C 1,5 UV-I 0,9 C 50 % 94 % 26 % 1017,2 hPa 0,0 l/m 8,0 km/h (2 Bft) 0 min 2 min 10,0 km/h (2 Bft)
12.10.2010 11:26 17,2 C 5,4 C 1,5 UV-I 0,9 C 50 % 94 % 26 % 1017,4 hPa 0,0 l/m 8,4 km/h (2 Bft) 0 min 2 min 9,7 km/h (2 Bft)
12.10.2010 11:28 17,2 C 5,5 C 1,5 UV-I 0,9 C 50 % 94 % 26 % 1017,4 hPa 0,0 l/m 8,8 km/h (2 Bft) 0 min 2 min 9,7 km/h (2 Bft)
12.10.2010 11:30 17,2 C 5,5 C 1,5 UV-I 0,7 C 50 % 94 % 20 % 1017,4 hPa 0,0 l/m 9,6 km/h (2 Bft) 0 min 2 min 10,9 km/h (2 Bft)
12.10.2010 11:32 17,2 C 5,5 C 1,5 UV-I 0,7 C 50 % 94 % 20 % 1017,4 hPa 0,0 l/m 10,0 km/h (2 Bft) 0 min 2 min 8,4 km/h (2 Bft)
12.10.2010 11:34 17,2 C 5,5 C 1,5 UV-I 0,9 C 50 % 94 % 26 % 1017,4 hPa 0,0 l/m 8,8 km/h (2 Bft) 0 min 2 min 7,4 km/h (2 Bft)
12.10.2010 11:36 17,2 C 5,5 C 1,5 UV-I 1,1 C 50 % 94 % 31 % 1017,4 hPa 0,0 l/m 8,4 km/h (2 Bft) 0 min 2 min 12,6 km/h (3 Bft)
12.10.2010 11:38 17,3 C 5,5 C 1,5 UV-I 1,2 C 50 % 94 % 34 % 1017,4 hPa 0,0 l/m 8,4 km/h (2 Bft) 0 min 2 min 9,3 km/h (2 Bft)
12.10.2010 11:40 17,2 C 5,6 C 1,5 UV-I 1,1 C 50 % 94 % 31 % 1017,4 hPa 0,0 l/m 8,0 km/h (2 Bft) 0 min 2 min 7,7 km/h (2 Bft)
12.10.2010 11:42 17,3 C 5,7 C 1,6 UV-I 1,0 C 50 % 94 % 29 % 1017,4 hPa 0,0 l/m 6,8 km/h (2 Bft) 0 min 2 min 0,0 km/h (0 Bft)
12.10.2010 11:44 17,3 C 5,8 C 1,6 UV-I 1,1 C 50 % 94 % 31 % 1017,4 hPa 0,0 l/m 6,4 km/h (2 Bft) 0 min 2 min 6,8 km/h (2 Bft)
12.10.2010 11:46 17,3 C 5,8 C 1,3 UV-I 1,1 C 50 % 94 % 31 % 1017,5 hPa 0,0 l/m 7,2 km/h (2 Bft) 0 min 2 min 4,8 km/h (1 Bft)
12.10.2010 11:48 17,2 C 5,9 C 1,3 UV-I 1,1 C 50 % 94 % 31 % 1017,5 hPa 0,0 l/m 6,8 km/h (2 Bft) 0 min 2 min 12,6 km/h (3 Bft)
12.10.2010 11:50 17,2 C 5,8 C 1,3 UV-I 1,2 C 50 % 94 % 34 % 1017,5 hPa 0,0 l/m 6,8 km/h (2 Bft) 0 min 2 min 8,4 km/h (2 Bft)
12.10.2010 11:52 17,2 C 5,8 C 1,4 UV-I 1,1 C 50 % 94 % 31 % 1017,5 hPa 0,0 l/m 8,0 km/h (2 Bft) 0 min 0 min 10,6 km/h (2 Bft)
12.10.2010 11:54 17,2 C 5,9 C 1,4 UV-I 1,0 C 50 % 94 % 29 % 1017,5 hPa 0,0 l/m 8,0 km/h (2 Bft) 0 min 0 min 7,7 km/h (2 Bft)
12.10.2010 11:56 17,2 C 5,9 C 1,4 UV-I 1,1 C 50 % 94 % 31 % 1017,5 hPa 0,0 l/m 8,0 km/h (2 Bft) 0 min 0 min 10,6 km/h (2 Bft)
12.10.2010 11:58 17,2 C 5,9 C 1,4 UV-I 1,1 C 50 % 94 % 31 % 1017,5 hPa 0,0 l/m 7,2 km/h (2 Bft) 0 min 0 min 0,0 km/h (0 Bft)
12.10.2010 12:00 17,2 C 5,9 C 1,4 UV-I 1,1 C 50 % 94 % 31 % 1017,5 hPa 0,0 l/m 6,0 km/h (2 Bft) 0 min 2 min 3,5 km/h (1 Bft)
12.10.2010 12:02 17,2 C 5,9 C 1,5 UV-I 1,3 C 50 % 94 % 37 % 1017,5 hPa 0,0 l/m 5,6 km/h (1 Bft) 0 min 2 min 7,7 km/h (2 Bft)
12.10.2010 12:04 17,2 C 5,9 C 1,5 UV-I 1,3 C 50 % 94 % 37 % 1017,5 hPa 0,0 l/m 6,0 km/h (2 Bft) 0 min 2 min 8,4 km/h (2 Bft)
12.10.2010 12:06 17,4 C 5,9 C 1,3 UV-I 1,3 C 50 % 94 % 37 % 1017,4 hPa 0,0 l/m 6,4 km/h (2 Bft) 0 min 2 min 6,4 km/h (2 Bft)
12.10.2010 12:08 17,4 C 6,0 C 1,3 UV-I 1,2 C 50 % 94 % 34 % 1017,4 hPa 0,0 l/m 5,2 km/h (1 Bft) 0 min 2 min 0,0 km/h (0 Bft)
12.10.2010 12:10 17,4 C 6,0 C 1,3 UV-I 1,2 C 50 % 94 % 34 % 1017,4 hPa 0,0 l/m 5,2 km/h (1 Bft) 0 min 2 min 0,0 km/h (0 Bft)
12.10.2010 12:12 17,4 C 6,1 C 1,3 UV-I 1,1 C 50 % 94 % 31 % 1017,4 hPa 0,0 l/m 5,6 km/h (1 Bft) 0 min 2 min 10,3 km/h (2 Bft)
12.10.2010 12:14 17,4 C 6,1 C 1,3 UV-I 1,2 C 50 % 94 % 34 % 1017,4 hPa 0,0 l/m 4,0 km/h (1 Bft) 0 min 0 min 0,0 km/h (0 Bft)
12.10.2010 12:16 17,4 C 6,2 C 1,5 UV-I 1,2 C 50 % 94 % 34 % 1017,4 hPa 0,0 l/m 3,2 km/h (1 Bft) 0 min 0 min 3,5 km/h (1 Bft)
12.10.2010 12:18 17,4 C 6,2 C 1,5 UV-I 1,3 C 50 % 94 % 37 % 1017,4 hPa 0,0 l/m 3,2 km/h (1 Bft) 0 min 0 min 12,2 km/h (2 Bft)
12.10.2010 12:20 17,4 C 6,2 C 1,5 UV-I 1,3 C 50 % 94 % 37 % 1017,4 hPa 0,0 l/m 3,6 km/h (1 Bft) 0 min 2 min 5,1 km/h (1 Bft)
12.10.2010 12:22 17,4 C 6,1 C 1,5 UV-I 1,5 C 50 % 94 % 43 % 1017,4 hPa 0,0 l/m 5,2 km/h (1 Bft) 0 min 0 min 14,5 km/h (3 Bft)
12.10.2010 12:24 17,4 C 6,2 C 1,5 UV-I 1,3 C 50 % 94 % 37 % 1017,4 hPa 0,0 l/m 6,0 km/h (2 Bft) 0 min 2 min 4,2 km/h (1 Bft)
12.10.2010 12:26 17,4 C 6,1 C 1,7 UV-I 1,4 C 50 % 94 % 40 % 1017,6 hPa 0,0 l/m 7,2 km/h (2 Bft) 0 min 2 min 15,8 km/h (3 Bft)
12.10.2010 12:28 17,4 C 6,2 C 1,7 UV-I 1,3 C 50 % 94 % 37 % 1017,6 hPa 0,0 l/m 8,4 km/h (2 Bft) 0 min 2 min 8,0 km/h (2 Bft)
12.10.2010 12:30 17,4 C 6,3 C 1,7 UV-I 1,2 C 50 % 93 % 34 % 1017,6 hPa 0,0 l/m 8,0 km/h (2 Bft) 0 min 2 min 0,0 km/h (0 Bft)
12.10.2010 12:32 17,4 C 6,3 C 1,6 UV-I 1,2 C 50 % 93 % 34 % 1017,6 hPa 0,0 l/m 7,2 km/h (2 Bft) 0 min 2 min 5,1 km/h (1 Bft)
12.10.2010 12:34 17,5 C 6,2 C 1,6 UV-I 1,4 C 50 % 93 % 40 % 1017,6 hPa 0,0 l/m 5,6 km/h (1 Bft) 0 min 2 min 8,0 km/h (2 Bft)
12.10.2010 12:36 17,4 C 6,2 C 1,5 UV-I 1,4 C 50 % 93 % 40 % 1017,6 hPa 0,0 l/m 6,4 km/h (2 Bft) 0 min 2 min 14,2 km/h (3 Bft)
12.10.2010 12:38 17,5 C 6,3 C 1,5 UV-I 1,3 C 50 % 93 % 37 % 1017,6 hPa 0,0 l/m 6,0 km/h (2 Bft) 0 min 2 min 6,8 km/h (2 Bft)
12.10.2010 12:40 17,5 C 6,3 C 1,5 UV-I 1,3 C 50 % 93 % 37 % 1017,6 hPa 0,0 l/m 7,2 km/h (2 Bft) 0 min 2 min 14,2 km/h (3 Bft)
12.10.2010 12:42 17,5 C 6,3 C 1,5 UV-I 1,2 C 50 % 93 % 34 % 1017,6 hPa 0,0 l/m 8,8 km/h (2 Bft) 0 min 2 min 14,2 km/h (3 Bft)
12.10.2010 12:44 17,5 C 6,3 C 1,5 UV-I 0,8 C 50 % 93 % 23 % 1017,6 hPa 0,0 l/m 10,4 km/h (2 Bft) 0 min 0 min 9,0 km/h (2 Bft)
12.10.2010 12:46 17,5 C 6,3 C 1,6 UV-I 0,8 C 50 % 93 % 23 % 1017,3 hPa 0,0 l/m 10,4 km/h (2 Bft) 0 min 2 min 9,0 km/h (2 Bft)
12.10.2010 12:48 17,5 C 6,2 C 1,6 UV-I 1,0 C 50 % 93 % 29 % 1017,3 hPa 0,0 l/m 10,0 km/h (2 Bft) 0 min 2 min 9,7 km/h (2 Bft)
12.10.2010 12:50 17,5 C 6,2 C 1,6 UV-I 1,1 C 50 % 93 % 31 % 1017,3 hPa 0,0 l/m 10,0 km/h (2 Bft) 0 min 2 min 14,2 km/h (3 Bft)
12.10.2010 12:52 17,5 C 6,3 C 1,6 UV-I 1,1 C 50 % 93 % 31 % 1017,3 hPa 0,0 l/m 9,2 km/h (2 Bft) 0 min 2 min 7,7 km/h (2 Bft)
12.10.2010 12:54 17,5 C 6,5 C 1,6 UV-I 1,0 C 50 % 93 % 29 % 1017,3 hPa 0,0 l/m 7,2 km/h (2 Bft) 0 min 2 min 5,5 km/h (1 Bft)
12.10.2010 12:56 17,5 C 6,5 C 1,5 UV-I 1,0 C 50 % 93 % 29 % 1017,3 hPa 0,0 l/m 6,8 km/h (2 Bft) 0 min 2 min 6,8 km/h (2 Bft)
12.10.2010 12:58 17,5 C 6,4 C 1,5 UV-I 1,2 C 50 % 93 % 34 % 1017,3 hPa 0,0 l/m 6,0 km/h (2 Bft) 0 min 0 min 0,0 km/h (0 Bft)
12.10.2010 13:00 17,5 C 6,4 C 1,5 UV-I 1,3 C 50 % 92 % 37 % 1017,3 hPa 0,0 l/m 6,4 km/h (2 Bft) 0 min 2 min 9,3 km/h (2 Bft)
12.10.2010 13:02 17,5 C 6,5 C 1,6 UV-I 1,3 C 50 % 92 % 37 % 1017,3 hPa 0,0 l/m 5,6 km/h (1 Bft) 0 min 2 min 7,4 km/h (2 Bft)
12.10.2010 13:04 17,5 C 6,4 C 1,6 UV-I 1,3 C 50 % 92 % 37 % 1017,3 hPa 0,0 l/m 6,0 km/h (2 Bft) 0 min 2 min 4,8 km/h (1 Bft)
12.10.2010 13:06 17,5 C 6,4 C 1,5 UV-I 1,3 C 50 % 92 % 37 % 1017,1 hPa 0,0 l/m 8,4 km/h (2 Bft) 0 min 2 min 10,0 km/h (2 Bft)
12.10.2010 13:08 17,5 C 6,4 C 1,5 UV-I 1,2 C 50 % 92 % 34 % 1017,1 hPa 0,0 l/m 8,8 km/h (2 Bft) 0 min 2 min 12,6 km/h (3 Bft)
12.10.2010 13:10 17,5 C 6,4 C 1,5 UV-I 1,0 C 50 % 92 % 29 % 1017,1 hPa 0,0 l/m 9,2 km/h (2 Bft) 0 min 2 min 7,1 km/h (2 Bft)
12.10.2010 13:12 17,5 C 6,5 C 1,4 UV-I 1,1 C 50 % 92 % 31 % 1017,1 hPa 0,0 l/m 9,2 km/h (2 Bft) 0 min 2 min 10,0 km/h (2 Bft)
12.10.2010 13:14 17,6 C 6,5 C 1,4 UV-I 0,9 C 50 % 92 % 26 % 1017,1 hPa 0,0 l/m 9,2 km/h (2 Bft) 0 min 2 min 4,5 km/h (1 Bft)
12.10.2010 13:16 17,5 C 6,5 C 1,4 UV-I 1,0 C 50 % 92 % 29 % 1017,1 hPa 0,0 l/m 8,4 km/h (2 Bft) 0 min 0 min 6,8 km/h (2 Bft)
12.10.2010 13:18 17,5 C 6,5 C 1,4 UV-I 1,1 C 50 % 92 % 31 % 1017,1 hPa 0,0 l/m 8,8 km/h (2 Bft) 0 min 2 min 15,1 km/h (3 Bft)
12.10.2010 13:20 17,5 C 6,5 C 1,4 UV-I 1,1 C 50 % 92 % 31 % 1017,1 hPa 0,0 l/m 8,0 km/h (2 Bft) 0 min 0 min 5,5 km/h (1 Bft)
12.10.2010 13:22 17,5 C 6,5 C 1,6 UV-I 1,2 C 50 % 92 % 34 % 1017,1 hPa 0,0 l/m 8,0 km/h (2 Bft) 0 min 0 min 7,1 km/h (2 Bft)
12.10.2010 13:24 17,5 C 6,7 C 1,6 UV-I 1,1 C 50 % 92 % 31 % 1017,1 hPa 0,0 l/m 8,4 km/h (2 Bft) 0 min 2 min 14,5 km/h (3 Bft)
12.10.2010 13:26 17,5 C 6,7 C 1,6 UV-I 1,1 C 50 % 92 % 31 % 1017,1 hPa 0,0 l/m 7,6 km/h (2 Bft) 0 min 2 min 5,5 km/h (1 Bft)
12.10.2010 13:28 17,5 C 6,6 C 1,6 UV-I 1,3 C 50 % 92 % 37 % 1017,1 hPa 0,0 l/m 8,0 km/h (2 Bft) 0 min 2 min 6,8 km/h (2 Bft)
12.10.2010 13:30 17,5 C 6,7 C 1,6 UV-I 1,2 C 50 % 92 % 34 % 1017,1 hPa 0,0 l/m 8,0 km/h (2 Bft) 0 min 2 min 10,9 km/h (2 Bft)
12.10.2010 13:32 17,6 C 6,7 C 1,6 UV-I 1,1 C 50 % 92 % 31 % 1017,1 hPa 0,0 l/m 9,2 km/h (2 Bft) 0 min 2 min 14,2 km/h (3 Bft)
12.10.2010 13:34 17,6 C 6,7 C 1,6 UV-I 1,1 C 50 % 92 % 31 % 1017,1 hPa 0,0 l/m 9,6 km/h (2 Bft) 0 min 2 min 12,2 km/h (2 Bft)
12.10.2010 13:36 17,6 C 6,7 C 1,7 UV-I 1,0 C 50 % 92 % 29 % 1017,1 hPa 0,0 l/m 10,0 km/h (2 Bft) 0 min 2 min 8,0 km/h (2 Bft)
12.10.2010 13:38 17,6 C 6,7 C 1,7 UV-I 1,0 C 50 % 92 % 29 % 1017,1 hPa 0,0 l/m 10,0 km/h (2 Bft) 0 min 2 min 12,2 km/h (2 Bft)
12.10.2010 13:40 17,6 C 6,7 C 1,7 UV-I 1,0 C 50 % 92 % 29 % 1017,1 hPa 0,0 l/m 10,0 km/h (2 Bft) 0 min 2 min 7,4 km/h (2 Bft)
12.10.2010 13:42 17,6 C 6,7 C 1,8 UV-I 1,2 C 50 % 91 % 34 % 1017,1 hPa 0,0 l/m 9,6 km/h (2 Bft) 0 min 0 min 16,7 km/h (3 Bft)
12.10.2010 13:44 17,6 C 6,7 C 1,8 UV-I 1,4 C 50 % 91 % 40 % 1017,1 hPa 0,0 l/m 9,6 km/h (2 Bft) 0 min 2 min 10,3 km/h (2 Bft)
12.10.2010 13:46 17,6 C 6,7 C 1,8 UV-I 1,2 C 50 % 91 % 34 % 1017,1 hPa 0,0 l/m 9,6 km/h (2 Bft) 0 min 2 min 10,0 km/h (2 Bft)
12.10.2010 13:48 17,6 C 6,7 C 1,8 UV-I 1,2 C 50 % 91 % 34 % 1017,1 hPa 0,0 l/m 9,6 km/h (2 Bft) 0 min 2 min 4,8 km/h (1 Bft)
12.10.2010 13:50 17,6 C 6,7 C 1,8 UV-I 1,3 C 50 % 91 % 37 % 1017,1 hPa 0,0 l/m 8,4 km/h (2 Bft) 0 min 2 min 10,3 km/h (2 Bft)
12.10.2010 13:52 17,6 C 6,6 C 1,9 UV-I 1,5 C 50 % 91 % 43 % 1017,1 hPa 0,0 l/m 8,4 km/h (2 Bft) 0 min 2 min 10,6 km/h (2 Bft)
12.10.2010 13:54 17,6 C 6,7 C 1,9 UV-I 1,4 C 50 % 91 % 40 % 1017,1 hPa 0,0 l/m 7,6 km/h (2 Bft) 0 min 0 min 0,0 km/h (0 Bft)
12.10.2010 13:56 17,6 C 6,6 C 1,9 UV-I 1,6 C 50 % 91 % 46 % 1017,1 hPa 0,0 l/m 6,4 km/h (2 Bft) 0 min 0 min 6,4 km/h (2 Bft)
12.10.2010 13:58 17,6 C 6,6 C 1,9 UV-I 1,7 C 50 % 90 % 49 % 1017,1 hPa 0,0 l/m 5,6 km/h (1 Bft) 0 min 2 min 8,4 km/h (2 Bft)
12.10.2010 14:00 17,6 C 6,7 C 1,9 UV-I 1,5 C 50 % 90 % 43 % 1017,1 hPa 0,0 l/m 6,0 km/h (2 Bft) 0 min 2 min 7,7 km/h (2 Bft)
12.10.2010 14:02 17,6 C 6,7 C 1,5 UV-I 1,4 C 50 % 90 % 40 % 1017,1 hPa 0,0 l/m 6,8 km/h (2 Bft) 0 min 2 min 6,8 km/h (2 Bft)
12.10.2010 14:04 17,6 C 6,6 C 1,5 UV-I 1,4 C 50 % 90 % 40 % 1017,1 hPa 0,0 l/m 6,0 km/h (2 Bft) 0 min 2 min 7,4 km/h (2 Bft)
12.10.2010 14:06 17,6 C 6,7 C 1,4 UV-I 1,4 C 50 % 90 % 40 % 1017,3 hPa 0,0 l/m 7,2 km/h (2 Bft) 0 min 2 min 9,7 km/h (2 Bft)
12.10.2010 14:08 17,6 C 6,7 C 1,4 UV-I 1,3 C 50 % 90 % 37 % 1017,3 hPa 0,0 l/m 8,8 km/h (2 Bft) 0 min 2 min 11,9 km/h (2 Bft)
12.10.2010 14:10 17,6 C 6,6 C 1,4 UV-I 1,2 C 50 % 90 % 34 % 1017,3 hPa 0,0 l/m 9,2 km/h (2 Bft) 0 min 2 min 14,5 km/h (3 Bft)
12.10.2010 14:12 17,6 C 6,7 C 1,4 UV-I 0,9 C 50 % 90 % 26 % 1017,3 hPa 0,0 l/m 10,0 km/h (2 Bft) 0 min 2 min 9,3 km/h (2 Bft)
12.10.2010 14:14 17,6 C 6,5 C 1,4 UV-I 0,9 C 50 % 90 % 26 % 1017,3 hPa 0,0 l/m 10,4 km/h (2 Bft) 0 min 2 min 8,7 km/h (2 Bft)
12.10.2010 14:16 17,6 C 6,7 C 1,4 UV-I 0,6 C 50 % 90 % 17 % 1017,3 hPa 0,0 l/m 11,2 km/h (2 Bft) 0 min 2 min 13,5 km/h (3 Bft)
12.10.2010 14:18 17,6 C 6,7 C 1,4 UV-I 0,6 C 50 % 90 % 17 % 1017,3 hPa 0,0 l/m 10,8 km/h (2 Bft) 0 min 2 min 6,4 km/h (2 Bft)
12.10.2010 14:20 17,6 C 6,7 C 1,4 UV-I 0,7 C 50 % 90 % 20 % 1017,3 hPa 0,0 l/m 10,4 km/h (2 Bft) 0 min 2 min 10,3 km/h (2 Bft)
12.10.2010 14:22 17,6 C 6,7 C 1,6 UV-I 0,8 C 50 % 90 % 23 % 1017,3 hPa 0,0 l/m 10,0 km/h (2 Bft) 0 min 2 min 8,0 km/h (2 Bft)
12.10.2010 14:24 17,6 C 6,7 C 1,6 UV-I 1,0 C 50 % 90 % 29 % 1017,3 hPa 0,0 l/m 9,6 km/h (2 Bft) 0 min 2 min 3,5 km/h (1 Bft)
12.10.2010 14:26 17,6 C 6,6 C 1,4 UV-I 1,1 C 50 % 90 % 31 % 1017,2 hPa 0,0 l/m 9,6 km/h (2 Bft) 0 min 2 min 7,7 km/h (2 Bft)
12.10.2010 14:28 17,6 C 6,7 C 1,4 UV-I 1,1 C 50 % 90 % 31 % 1017,2 hPa 0,0 l/m 8,8 km/h (2 Bft) 0 min 2 min 6,8 km/h (2 Bft)
12.10.2010 14:30 17,6 C 6,7 C 1,4 UV-I 1,0 C 50 % 90 % 29 % 1017,2 hPa 0,0 l/m 9,2 km/h (2 Bft) 0 min 2 min 16,7 km/h (3 Bft)
12.10.2010 14:32 17,6 C 6,7 C 1,5 UV-I 1,0 C 50 % 90 % 29 % 1017,2 hPa 0,0 l/m 9,6 km/h (2 Bft) 0 min 2 min 12,6 km/h (3 Bft)
12.10.2010 14:34 17,6 C 6,7 C 1,5 UV-I 0,9 C 50 % 90 % 26 % 1017,2 hPa 0,0 l/m 10,0 km/h (2 Bft) 0 min 2 min 13,5 km/h (3 Bft)
12.10.2010 14:36 17,6 C 6,7 C 1,5 UV-I 0,8 C 50 % 90 % 23 % 1017,2 hPa 0,0 l/m 10,4 km/h (2 Bft) 0 min 2 min 20,6 km/h (4 Bft)
12.10.2010 14:38 17,6 C 6,7 C 1,5 UV-I 0,7 C 50 % 90 % 20 % 1017,2 hPa 0,0 l/m 11,2 km/h (2 Bft) 0 min 2 min 16,4 km/h (3 Bft)
12.10.2010 14:40 17,6 C 6,7 C 1,5 UV-I 0,7 C 50 % 90 % 20 % 1017,2 hPa 0,0 l/m 11,2 km/h (2 Bft) 0 min 0 min 5,1 km/h (1 Bft)
12.10.2010 14:42 17,6 C 6,7 C 1,8 UV-I 0,9 C 50 % 90 % 26 % 1017,2 hPa 0,0 l/m 10,8 km/h (2 Bft) 0 min 0 min 7,1 km/h (2 Bft)
12.10.2010 14:44 17,6 C 6,8 C 1,8 UV-I 1,0 C 50 % 90 % 29 % 1017,2 hPa 0,0 l/m 10,4 km/h (2 Bft) 0 min 0 min 20,6 km/h (4 Bft)
12.10.2010 14:46 17,6 C 6,8 C 1,8 UV-I 1,0 C 50 % 90 % 29 % 1016,9 hPa 0,0 l/m 10,0 km/h (2 Bft) 0 min 0 min 8,4 km/h (2 Bft)
12.10.2010 14:48 17,6 C 6,8 C 1,8 UV-I 1,3 C 50 % 90 % 37 % 1016,9 hPa 0,0 l/m 9,6 km/h (2 Bft) 0 min 2 min 10,6 km/h (2 Bft)
12.10.2010 14:50 17,6 C 6,9 C 1,8 UV-I 1,2 C 50 % 90 % 34 % 1016,9 hPa 0,0 l/m 8,8 km/h (2 Bft) 0 min 0 min 9,7 km/h (2 Bft)
12.10.2010 14:52 17,6 C 6,9 C 1,7 UV-I 1,3 C 50 % 90 % 37 % 1016,9 hPa 0,0 l/m 9,2 km/h (2 Bft) 0 min 0 min 7,7 km/h (2 Bft)
12.10.2010 14:54 17,6 C 6,8 C 1,7 UV-I 1,4 C 50 % 90 % 40 % 1016,9 hPa 0,0 l/m 9,2 km/h (2 Bft) 0 min 2 min 12,2 km/h (2 Bft)
12.10.2010 14:56 17,6 C 6,8 C 1,7 UV-I 1,5 C 50 % 90 % 43 % 1016,9 hPa 0,0 l/m 9,2 km/h (2 Bft) 0 min 2 min 7,7 km/h (2 Bft)
12.10.2010 14:58 17,6 C 6,8 C 1,7 UV-I 1,4 C 50 % 90 % 40 % 1016,9 hPa 0,0 l/m 9,6 km/h (2 Bft) 0 min 2 min 20,3 km/h (4 Bft)
12.10.2010 15:00 17,6 C 6,9 C 1,7 UV-I 1,4 C 50 % 89 % 40 % 1016,9 hPa 0,0 l/m 9,6 km/h (2 Bft) 0 min 2 min 13,8 km/h (3 Bft)
12.10.2010 15:02 17,6 C 6,8 C 1,8 UV-I 1,5 C 50 % 89 % 43 % 1016,9 hPa 0,0 l/m 10,0 km/h (2 Bft) 0 min 2 min 13,5 km/h (3 Bft)
12.10.2010 15:04 17,6 C 6,8 C 1,8 UV-I 1,5 C 50 % 89 % 43 % 1016,9 hPa 0,0 l/m 10,0 km/h (2 Bft) 0 min 2 min 11,9 km/h (2 Bft)
12.10.2010 15:06 17,6 C 6,8 C 1,8 UV-I 1,5 C 50 % 89 % 43 % 1016,9 hPa 0,0 l/m 9,6 km/h (2 Bft) 0 min 2 min 12,9 km/h (3 Bft)
12.10.2010 15:08 17,7 C 6,9 C 1,8 UV-I 1,7 C 50 % 89 % 49 % 1016,9 hPa 0,0 l/m 9,6 km/h (2 Bft) 0 min 2 min 10,3 km/h (2 Bft)
12.10.2010 15:10 17,6 C 7,0 C 1,8 UV-I 1,8 C 50 % 89 % 51 % 1016,9 hPa 0,0 l/m 10,4 km/h (2 Bft) 0 min 2 min 15,1 km/h (3 Bft)
12.10.2010 15:12 17,7 C 7,1 C 2,4 UV-I 1,8 C 50 % 89 % 51 % 1016,9 hPa 0,0 l/m 10,8 km/h (2 Bft) 0 min 2 min 10,6 km/h (2 Bft)
12.10.2010 15:14 17,7 C 7,2 C 2,4 UV-I 1,8 C 50 % 89 % 51 % 1016,9 hPa 0,0 l/m 11,2 km/h (2 Bft) 0 min 2 min 7,4 km/h (2 Bft)
12.10.2010 15:16 17,8 C 7,3 C 2,7 UV-I 2,0 C 50 % 89 % 57 % 1016,9 hPa 0,0 l/m 12,0 km/h (2 Bft) 0 min 0 min 8,4 km/h (2 Bft)
12.10.2010 15:18 17,8 C 7,3 C 2,7 UV-I 2,9 C 50 % 88 % 83 % 1016,9 hPa 0,0 l/m 11,2 km/h (2 Bft) 2 min 0 min 14,5 km/h (3 Bft)
12.10.2010 15:20 17,8 C 7,4 C 2,7 UV-I 3,4 C 50 % 88 % 97 % 1016,9 hPa 0,0 l/m 11,2 km/h (2 Bft) 2 min 0 min 10,0 km/h (2 Bft)
12.10.2010 15:22 17,9 C 7,4 C 2,7 UV-I 3,5 C 50 % 88 % 100 % 1016,9 hPa 0,0 l/m 9,2 km/h (2 Bft) 2 min 0 min 4,2 km/h (1 Bft)
12.10.2010 15:24 17,9 C 7,5 C 2,7 UV-I 3,3 C 50 % 88 % 94 % 1016,9 hPa 0,0 l/m 7,6 km/h (2 Bft) 2 min 2 min 0,0 km/h (0 Bft)
12.10.2010 15:26 18,0 C 7,7 C 2,7 UV-I 3,4 C 50 % 87 % 97 % 1017,2 hPa 0,0 l/m 7,2 km/h (2 Bft) 2 min 2 min 10,0 km/h (2 Bft)
12.10.2010 15:28 18,0 C 7,7 C 2,7 UV-I 3,7 C 50 % 87 % 100 % 1017,2 hPa 0,0 l/m 7,6 km/h (2 Bft) 2 min 2 min 16,1 km/h (3 Bft)
12.10.2010 15:30 18,1 C 7,7 C 2,7 UV-I 3,9 C 49 % 87 % 100 % 1017,2 hPa 0,0 l/m 7,6 km/h (2 Bft) 2 min 2 min 7,4 km/h (2 Bft)
12.10.2010 15:32 18,2 C 7,9 C 2,8 UV-I 4,1 C 49 % 87 % 100 % 1017,2 hPa 0,0 l/m 7,6 km/h (2 Bft) 2 min 0 min 7,4 km/h (2 Bft)
12.10.2010 15:34 18,2 C 7,9 C 2,8 UV-I 4,4 C 49 % 86 % 100 % 1017,2 hPa 0,0 l/m 7,6 km/h (2 Bft) 2 min 0 min 6,1 km/h (2 Bft)
12.10.2010 15:36 18,3 C 8,0 C 2,8 UV-I 4,6 C 49 % 86 % 100 % 1017,2 hPa 0,0 l/m 7,6 km/h (2 Bft) 2 min 0 min 14,5 km/h (3 Bft)
12.10.2010 15:38 18,4 C 8,0 C 2,8 UV-I 4,7 C 49 % 86 % 100 % 1017,2 hPa 0,0 l/m 8,0 km/h (2 Bft) 2 min 0 min 7,4 km/h (2 Bft)
12.10.2010 15:40 18,4 C 8,0 C 2,8 UV-I 4,8 C 48 % 86 % 100 % 1017,2 hPa 0,0 l/m 7,6 km/h (2 Bft) 2 min 0 min 10,0 km/h (2 Bft)
12.10.2010 15:42 18,5 C 8,1 C 2,7 UV-I 4,7 C 48 % 86 % 100 % 1017,2 hPa 0,0 l/m 8,0 km/h (2 Bft) 2 min 0 min 10,6 km/h (2 Bft)
12.10.2010 15:44 18,6 C 8,1 C 2,7 UV-I 4,7 C 48 % 86 % 100 % 1017,2 hPa 0,0 l/m 8,4 km/h (2 Bft) 2 min 0 min 7,4 km/h (2 Bft)
12.10.2010 15:46 18,7 C 8,1 C 2,6 UV-I 4,8 C 48 % 85 % 100 % 1018,4 hPa 0,0 l/m 9,2 km/h (2 Bft) 2 min 2 min 16,1 km/h (3 Bft)
12.10.2010 15:48 18,8 C 8,3 C 2,6 UV-I 4,6 C 48 % 85 % 100 % 1018,4 hPa 0,0 l/m 10,0 km/h (2 Bft) 2 min 2 min 18,7 km/h (3 Bft)
12.10.2010 15:50 18,8 C 8,3 C 2,6 UV-I 4,6 C 48 % 85 % 100 % 1018,4 hPa 0,0 l/m 10,0 km/h (2 Bft) 2 min 2 min 7,7 km/h (2 Bft)
12.10.2010 15:52 18,9 C 8,4 C 2,6 UV-I 4,5 C 47 % 85 % 100 % 1018,4 hPa 0,0 l/m 10,4 km/h (2 Bft) 2 min 0 min 10,9 km/h (2 Bft)
12.10.2010 15:54 19,0 C 8,4 C 2,6 UV-I 4,5 C 47 % 84 % 100 % 1018,4 hPa 0,0 l/m 11,6 km/h (2 Bft) 2 min 0 min 15,1 km/h (3 Bft)
12.10.2010 15:56 19,1 C 8,5 C 2,5 UV-I 4,4 C 47 % 84 % 100 % 1018,4 hPa 0,0 l/m 12,8 km/h (3 Bft) 2 min 0 min 20,9 km/h (4 Bft)
12.10.2010 15:58 19,2 C 8,5 C 2,5 UV-I 4,3 C 47 % 84 % 100 % 1018,4 hPa 0,0 l/m 13,3 km/h (3 Bft) 2 min 0 min 14,5 km/h (3 Bft)
12.10.2010 16:00 19,2 C 8,6 C 2,5 UV-I 4,1 C 47 % 83 % 100 % 1018,4 hPa 0,0 l/m 12,8 km/h (3 Bft) 2 min 0 min 14,5 km/h (3 Bft)
12.10.2010 16:02 19,2 C 8,7 C 2,5 UV-I 4,0 C 46 % 83 % 100 % 1018,4 hPa 0,0 l/m 13,3 km/h (3 Bft) 2 min 0 min 6,8 km/h (2 Bft)
12.10.2010 16:04 19,4 C 8,7 C 2,5 UV-I 4,1 C 46 % 83 % 100 % 1018,4 hPa 0,0 l/m 13,7 km/h (3 Bft) 2 min 2 min 9,0 km/h (2 Bft)
12.10.2010 16:06 19,5 C 8,7 C 2,4 UV-I 4,1 C 46 % 83 % 100 % 1018,9 hPa 0,0 l/m 12,8 km/h (3 Bft) 2 min 2 min 12,2 km/h (2 Bft)
12.10.2010 16:08 19,6 C 8,7 C 2,4 UV-I 4,2 C 46 % 83 % 100 % 1018,9 hPa 0,0 l/m 11,2 km/h (2 Bft) 2 min 2 min 11,3 km/h (2 Bft)
12.10.2010 16:10 19,6 C 8,7 C 2,4 UV-I 4,3 C 46 % 82 % 100 % 1018,9 hPa 0,0 l/m 10,4 km/h (2 Bft) 2 min 0 min 15,1 km/h (3 Bft)
12.10.2010 16:12 19,7 C 8,7 C 2,3 UV-I 4,3 C 45 % 81 % 100 % 1018,9 hPa 0,0 l/m 10,8 km/h (2 Bft) 2 min 0 min 12,9 km/h (3 Bft)
12.10.2010 16:14 19,8 C 8,7 C 2,3 UV-I 4,2 C 45 % 81 % 100 % 1018,9 hPa 0,0 l/m 11,6 km/h (2 Bft) 2 min 0 min 17,4 km/h (3 Bft)
12.10.2010 16:16 19,9 C 8,8 C 2,2 UV-I 4,0 C 45 % 81 % 100 % 1018,9 hPa 0,0 l/m 11,6 km/h (2 Bft) 2 min 0 min 24,5 km/h (4 Bft)
12.10.2010 16:18 20,0 C 8,8 C 2,2 UV-I 4,0 C 45 % 81 % 100 % 1018,9 hPa 0,0 l/m 12,4 km/h (3 Bft) 2 min 0 min 10,3 km/h (2 Bft)
12.10.2010 16:20 20,0 C 8,9 C 2,2 UV-I 3,9 C 45 % 81 % 100 % 1018,9 hPa 0,0 l/m 12,4 km/h (3 Bft) 2 min 0 min 6,1 km/h (2 Bft)
12.10.2010 16:22 20,1 C 9,1 C 2,2 UV-I 3,9 C 44 % 81 % 100 % 1018,9 hPa 0,0 l/m 10,8 km/h (2 Bft) 2 min 2 min 6,4 km/h (2 Bft)
12.10.2010 16:24 20,2 C 9,1 C 2,2 UV-I 4,1 C 44 % 81 % 100 % 1018,9 hPa 0,0 l/m 10,0 km/h (2 Bft) 2 min 2 min 11,6 km/h (2 Bft)
12.10.2010 16:26 20,3 C 9,2 C 2,1 UV-I 4,1 C 44 % 81 % 100 % 1018,9 hPa 0,0 l/m 8,8 km/h (2 Bft) 2 min 0 min 7,7 km/h (2 Bft)
12.10.2010 16:28 20,3 C 9,2 C 2,1 UV-I 4,3 C 44 % 79 % 100 % 1018,9 hPa 0,0 l/m 8,0 km/h (2 Bft) 2 min 0 min 8,4 km/h (2 Bft)
12.10.2010 16:30 20,4 C 9,2 C 2,1 UV-I 4,3 C 44 % 79 % 100 % 1018,9 hPa 0,0 l/m 8,4 km/h (2 Bft) 2 min 0 min 25,1 km/h (4 Bft)
12.10.2010 16:32 20,4 C 9,1 C 2,0 UV-I 4,3 C 43 % 79 % 100 % 1018,9 hPa 0,0 l/m 10,0 km/h (2 Bft) 2 min 0 min 15,4 km/h (3 Bft)
12.10.2010 16:34 20,5 C 9,1 C 2,0 UV-I 4,1 C 43 % 79 % 100 % 1018,9 hPa 0,0 l/m 10,4 km/h (2 Bft) 2 min 0 min 10,9 km/h (2 Bft)
12.10.2010 16:36 20,6 C 9,3 C 1,9 UV-I 3,8 C 43 % 79 % 100 % 1018,9 hPa 0,0 l/m 10,4 km/h (2 Bft) 2 min 0 min 25,1 km/h (4 Bft)
12.10.2010 16:38 20,6 C 9,2 C 1,9 UV-I 4,0 C 43 % 78 % 100 % 1018,9 hPa 0,0 l/m 10,8 km/h (2 Bft) 2 min 0 min 12,6 km/h (3 Bft)
12.10.2010 16:40 20,7 C 9,2 C 1,9 UV-I 4,0 C 43 % 78 % 100 % 1018,9 hPa 0,0 l/m 11,2 km/h (2 Bft) 2 min 2 min 15,1 km/h (3 Bft)
12.10.2010 16:42 20,7 C 9,2 C 1,8 UV-I 3,8 C 43 % 78 % 100 % 1018,9 hPa 0,0 l/m 10,0 km/h (2 Bft) 2 min 2 min 9,3 km/h (2 Bft)
12.10.2010 16:44 20,8 C 9,2 C 1,8 UV-I 3,8 C 43 % 79 % 100 % 1018,9 hPa 0,0 l/m 8,8 km/h (2 Bft) 2 min 0 min 6,8 km/h (2 Bft)
12.10.2010 16:46 20,8 C 9,3 C 1,7 UV-I 3,8 C 43 % 78 % 100 % 1019,2 hPa 0,0 l/m 7,6 km/h (2 Bft) 2 min 0 min 3,2 km/h (1 Bft)
12.10.2010 16:48 20,8 C 9,3 C 1,7 UV-I 3,8 C 43 % 78 % 100 % 1019,2 hPa 0,0 l/m 8,8 km/h (2 Bft) 2 min 0 min 12,6 km/h (3 Bft)
12.10.2010 16:50 20,8 C 9,2 C 1,7 UV-I 3,9 C 42 % 78 % 100 % 1019,2 hPa 0,0 l/m 9,2 km/h (2 Bft) 2 min 0 min 12,2 km/h (2 Bft)
12.10.2010 16:52 20,9 C 9,3 C 1,6 UV-I 3,7 C 42 % 78 % 100 % 1019,2 hPa 0,0 l/m 7,2 km/h (2 Bft) 2 min 0 min 5,1 km/h (1 Bft)
12.10.2010 16:54 21,0 C 9,3 C 1,6 UV-I 3,7 C 42 % 78 % 100 % 1019,2 hPa 0,0 l/m 7,6 km/h (2 Bft) 2 min 0 min 8,7 km/h (2 Bft)
12.10.2010 16:56 21,0 C 9,3 C 1,6 UV-I 3,6 C 42 % 78 % 100 % 1019,2 hPa 0,0 l/m 8,0 km/h (2 Bft) 2 min 0 min 7,7 km/h (2 Bft)
12.10.2010 16:58 21,0 C 9,2 C 1,6 UV-I 3,5 C 42 % 78 % 100 % 1019,2 hPa 0,0 l/m 10,0 km/h (2 Bft) 2 min 2 min 12,6 km/h (3 Bft)
12.10.2010 17:00 21,0 C 9,2 C 1,6 UV-I 3,3 C 42 % 78 % 94 % 1019,2 hPa 0,0 l/m 10,8 km/h (2 Bft) 2 min 2 min 11,3 km/h (2 Bft)
12.10.2010 17:02 21,1 C 9,3 C 1,5 UV-I 3,1 C 42 % 79 % 89 % 1019,2 hPa 0,0 l/m 11,2 km/h (2 Bft) 2 min 2 min 10,0 km/h (2 Bft)
12.10.2010 17:04 21,1 C 9,4 C 1,5 UV-I 3,0 C 42 % 79 % 86 % 1019,2 hPa 0,0 l/m 11,2 km/h (2 Bft) 2 min 2 min 11,6 km/h (2 Bft)
12.10.2010 17:06 21,1 C 9,3 C 1,4 UV-I 3,1 C 42 % 78 % 89 % 1018,2 hPa 0,0 l/m 12,0 km/h (2 Bft) 2 min 2 min 13,5 km/h (3 Bft)
12.10.2010 17:08 21,1 C 9,3 C 1,4 UV-I 3,0 C 42 % 78 % 86 % 1018,2 hPa 0,0 l/m 12,4 km/h (3 Bft) 2 min 0 min 20,9 km/h (4 Bft)
12.10.2010 17:10 21,1 C 9,3 C 1,4 UV-I 2,9 C 42 % 78 % 83 % 1018,2 hPa 0,0 l/m 11,2 km/h (2 Bft) 2 min 0 min 10,0 km/h (2 Bft)
12.10.2010 17:12 21,1 C 9,2 C 1,3 UV-I 2,9 C 42 % 79 % 83 % 1018,2 hPa 0,0 l/m 11,2 km/h (2 Bft) 2 min 2 min 6,4 km/h (2 Bft)
12.10.2010 17:14 21,2 C 9,2 C 1,3 UV-I 2,9 C 42 % 79 % 83 % 1018,2 hPa 0,0 l/m 11,6 km/h (2 Bft) 2 min 0 min 8,4 km/h (2 Bft)
12.10.2010 17:16 21,1 C 9,1 C 1,2 UV-I 3,1 C 42 % 79 % 89 % 1018,2 hPa 0,0 l/m 10,4 km/h (2 Bft) 2 min 2 min 15,4 km/h (3 Bft)
12.10.2010 17:18 21,1 C 9,0 C 1,2 UV-I 3,1 C 42 % 79 % 89 % 1018,2 hPa 0,0 l/m 10,8 km/h (2 Bft) 2 min 2 min 12,2 km/h (2 Bft)
12.10.2010 17:20 21,1 C 9,1 C 1,2 UV-I 2,8 C 42 % 80 % 80 % 1018,2 hPa 0,0 l/m 10,4 km/h (2 Bft) 2 min 2 min 15,1 km/h (3 Bft)
12.10.2010 17:22 21,1 C 9,1 C 1,1 UV-I 2,3 C 42 % 80 % 66 % 1018,2 hPa 0,0 l/m 11,2 km/h (2 Bft) 2 min 2 min 13,8 km/h (3 Bft)
12.10.2010 17:24 21,1 C 9,0 C 1,1 UV-I 1,8 C 42 % 80 % 51 % 1018,2 hPa 0,0 l/m 12,0 km/h (2 Bft) 2 min 2 min 16,4 km/h (3 Bft)
12.10.2010 17:26 21,1 C 9,1 C 1,0 UV-I 0,8 C 42 % 80 % 23 % 1017,9 hPa 0,0 l/m 14,1 km/h (3 Bft) 0 min 2 min 19,3 km/h (3 Bft)
12.10.2010 17:28 21,1 C 8,9 C 1,0 UV-I 0,8 C 42 % 80 % 23 % 1017,9 hPa 0,0 l/m 13,7 km/h (3 Bft) 0 min 2 min 8,7 km/h (2 Bft)
12.10.2010 17:30 21,1 C 8,9 C 1,0 UV-I 0,8 C 42 % 80 % 23 % 1017,9 hPa 0,0 l/m 13,7 km/h (3 Bft) 0 min 2 min 7,1 km/h (2 Bft)
12.10.2010 17:32 21,0 C 8,9 C 1,0 UV-I 1,0 C 42 % 81 % 29 % 1017,9 hPa 0,0 l/m 13,3 km/h (3 Bft) 0 min 0 min 11,9 km/h (2 Bft)
12.10.2010 17:34 21,0 C 8,9 C 1,0 UV-I 1,2 C 42 % 81 % 34 % 1017,9 hPa 0,0 l/m 12,0 km/h (2 Bft) 0 min 0 min 4,8 km/h (1 Bft)
12.10.2010 17:36 21,0 C 8,9 C 0,9 UV-I 1,5 C 42 % 81 % 43 % 1017,9 hPa 0,0 l/m 10,4 km/h (2 Bft) 2 min 0 min 15,1 km/h (3 Bft)
12.10.2010 17:38 20,9 C 8,9 C 0,9 UV-I 1,5 C 42 % 81 % 43 % 1017,9 hPa 0,0 l/m 9,2 km/h (2 Bft) 2 min 0 min 15,4 km/h (3 Bft)
12.10.2010 17:40 20,9 C 8,9 C 0,9 UV-I 1,6 C 42 % 81 % 46 % 1017,9 hPa 0,0 l/m 9,6 km/h (2 Bft) 2 min 0 min 8,7 km/h (2 Bft)
12.10.2010 17:42 20,8 C 8,9 C 0,9 UV-I 1,2 C 42 % 81 % 34 % 1017,9 hPa 0,0 l/m 10,4 km/h (2 Bft) 0 min 2 min 16,1 km/h (3 Bft)
12.10.2010 17:44 20,8 C 8,9 C 0,9 UV-I 0,8 C 42 % 81 % 23 % 1017,9 hPa 0,0 l/m 10,4 km/h (2 Bft) 0 min 2 min 15,8 km/h (3 Bft)
12.10.2010 17:46 20,8 C 8,8 C 0,8 UV-I 0,5 C 42 % 81 % 14 % 1017,6 hPa 0,0 l/m 10,8 km/h (2 Bft) 0 min 2 min 11,3 km/h (2 Bft)
12.10.2010 17:48 20,8 C 8,8 C 0,8 UV-I 0,1 C 42 % 81 % 3 % 1017,6 hPa 0,0 l/m 11,2 km/h (2 Bft) 0 min 2 min 9,0 km/h (2 Bft)
12.10.2010 17:50 20,7 C 8,9 C 0,8 UV-I 0,0 C 42 % 81 % 0 % 1017,6 hPa 0,0 l/m 10,0 km/h (2 Bft) 0 min 2 min 4,2 km/h (1 Bft)
12.10.2010 17:52 20,6 C 8,8 C 0,8 UV-I 0,0 C 42 % 81 % 0 % 1017,6 hPa 0,0 l/m 9,2 km/h (2 Bft) 0 min 2 min 5,8 km/h (2 Bft)
12.10.2010 17:54 20,6 C 8,8 C 0,8 UV-I 0,0 C 42 % 81 % 0 % 1017,6 hPa 0,0 l/m 10,0 km/h (2 Bft) 0 min 2 min 13,2 km/h (3 Bft)
12.10.2010 17:56 20,5 C 8,7 C 0,7 UV-I 0,0 C 42 % 81 % 0 % 1017,6 hPa 0,0 l/m 9,2 km/h (2 Bft) 0 min 2 min 9,0 km/h (2 Bft)
12.10.2010 17:58 20,5 C 8,7 C 0,7 UV-I 0,0 C 42 % 81 % 0 % 1017,6 hPa 0,0 l/m 9,6 km/h (2 Bft) 0 min 2 min 16,4 km/h (3 Bft)
12.10.2010 18:00 20,4 C 8,7 C 0,7 UV-I 0,0 C 42 % 81 % 0 % 1017,6 hPa 0,0 l/m 9,2 km/h (2 Bft) 0 min 2 min 5,1 km/h (1 Bft)
12.10.2010 18:02 20,4 C 8,7 C 0,7 UV-I 0,0 C 42 % 81 % 0 % 1017,6 hPa 0,0 l/m 8,8 km/h (2 Bft) 0 min 2 min 3,9 km/h (1 Bft)
12.10.2010 18:04 20,4 C 8,6 C 0,7 UV-I 0,0 C 43 % 82 % 0 % 1017,6 hPa 0,0 l/m 7,6 km/h (2 Bft) 0 min 2 min 5,8 km/h (2 Bft)
12.10.2010 18:06 20,3 C 8,6 C 0,6 UV-I 0,0 C 43 % 82 % 0 % 1016,9 hPa 0,0 l/m 5,6 km/h (1 Bft) 0 min 2 min 0,0 km/h (0 Bft)
12.10.2010 18:08 20,3 C 8,4 C 0,6 UV-I 0,0 C 43 % 82 % 0 % 1016,9 hPa 0,0 l/m 5,6 km/h (1 Bft) 0 min 0 min 11,9 km/h (2 Bft)
12.10.2010 18:10 20,2 C 8,5 C 0,6 UV-I 0,0 C 43 % 82 % 0 % 1016,9 hPa 0,0 l/m 4,4 km/h (1 Bft) 0 min 2 min 5,5 km/h (1 Bft)
12.10.2010 18:12 20,1 C 8,5 C 0,5 UV-I 0,0 C 43 % 82 % 0 % 1016,9 hPa 0,0 l/m 4,8 km/h (1 Bft) 0 min 2 min 11,3 km/h (2 Bft)
12.10.2010 18:14 20,1 C 8,3 C 0,5 UV-I 0,0 C 43 % 82 % 0 % 1016,9 hPa 0,0 l/m 5,2 km/h (1 Bft) 0 min 2 min 7,1 km/h (2 Bft)
12.10.2010 18:16 20,0 C 8,3 C 0,5 UV-I 0,0 C 43 % 82 % 0 % 1016,9 hPa 0,0 l/m 5,2 km/h (1 Bft) 0 min 2 min 6,8 km/h (2 Bft)
12.10.2010 18:18 20,0 C 8,2 C 0,5 UV-I 0,0 C 43 % 82 % 0 % 1016,9 hPa 0,0 l/m 6,4 km/h (2 Bft) 0 min 2 min 10,0 km/h (2 Bft)
12.10.2010 18:20 20,0 C 8,3 C 0,5 UV-I 0,0 C 43 % 82 % 0 % 1016,9 hPa 0,0 l/m 5,6 km/h (1 Bft) 0 min 2 min 5,8 km/h (2 Bft)
12.10.2010 18:22 19,9 C 8,2 C 0,5 UV-I 0,0 C 43 % 83 % 0 % 1016,9 hPa 0,0 l/m 5,6 km/h (1 Bft) 0 min 2 min 4,5 km/h (1 Bft)
12.10.2010 18:24 19,9 C 8,1 C 0,5 UV-I 0,0 C 43 % 83 % 0 % 1016,9 hPa 0,0 l/m 5,2 km/h (1 Bft) 0 min 2 min 6,1 km/h (2 Bft)
12.10.2010 18:26 19,8 C 8,0 C 0,3 UV-I 0,0 C 43 % 83 % 0 % 1016,8 hPa 0,0 l/m 6,0 km/h (2 Bft) 0 min 2 min 6,8 km/h (2 Bft)
12.10.2010 18:28 19,8 C 8,0 C 0,3 UV-I 0,0 C 43 % 83 % 0 % 1016,8 hPa 0,0 l/m 5,2 km/h (1 Bft) 0 min 2 min 0,0 km/h (0 Bft)
12.10.2010 18:30 19,7 C 8,0 C 0,3 UV-I 0,0 C 44 % 83 % 0 % 1016,8 hPa 0,0 l/m 4,8 km/h (1 Bft) 0 min 2 min 3,2 km/h (1 Bft)
12.10.2010 18:32 19,7 C 8,1 C 0,3 UV-I 0,0 C 44 % 83 % 0 % 1016,8 hPa 0,0 l/m 4,0 km/h (1 Bft) 0 min 2 min 0,0 km/h (0 Bft)
12.10.2010 18:34 19,6 C 8,0 C 0,3 UV-I 0,0 C 44 % 83 % 0 % 1016,8 hPa 0,0 l/m 2,8 km/h (1 Bft) 0 min 2 min 0,0 km/h (0 Bft)
12.10.2010 18:36 19,6 C 8,0 C 0,3 UV-I 0,0 C 44 % 83 % 0 % 1016,8 hPa 0,0 l/m 1,6 km/h (1 Bft) 0 min 2 min 0,0 km/h (0 Bft)
12.10.2010 18:38 19,6 C 7,9 C 0,3 UV-I 0,0 C 44 % 83 % 0 % 1016,8 hPa 0,0 l/m 0,8 km/h (0 Bft) 0 min 2 min 0,0 km/h (0 Bft)
12.10.2010 18:40 19,5 C 7,9 C 0,3 UV-I 0,0 C 44 % 84 % 0 % 1016,8 hPa 0,0 l/m 0,4 km/h (0 Bft) 0 min 2 min 0,0 km/h (0 Bft)
12.10.2010 18:42 19,5 C 7,8 C 0,3 UV-I 0,0 C 44 % 84 % 0 % 1016,8 hPa 0,0 l/m 0,0 km/h (0 Bft) 0 min 2 min 0,0 km/h (0 Bft)
12.10.2010 18:44 19,4 C 7,9 C 0,3 UV-I 0,0 C 44 % 84 % 0 % 1016,8 hPa 0,0 l/m 0,4 km/h (0 Bft) 0 min 2 min 0,0 km/h (0 Bft)
12.10.2010 18:46 19,4 C 7,7 C 0,2 UV-I 0,0 C 44 % 84 % 0 % 1016,6 hPa 0,0 l/m 0,8 km/h (0 Bft) 0 min 2 min 5,1 km/h (1 Bft)
12.10.2010 18:48 19,2 C 7,7 C 0,2 UV-I 0,0 C 44 % 84 % 0 % 1016,6 hPa 0,0 l/m 0,8 km/h (0 Bft) 0 min 2 min 0,0 km/h (0 Bft)
12.10.2010 18:50 19,3 C 7,6 C 0,2 UV-I 0,0 C 44 % 84 % 0 % 1016,6 hPa 0,0 l/m 0,8 km/h (0 Bft) 0 min 2 min 0,0 km/h (0 Bft)
12.10.2010 18:52 19,2 C 7,6 C 0,2 UV-I 0,0 C 44 % 84 % 0 % 1016,6 hPa 0,0 l/m 0,8 km/h (0 Bft) 0 min 2 min 0,0 km/h (0 Bft)
12.10.2010 18:54 19,2 C 7,6 C 0,2 UV-I 0,0 C 44 % 84 % 0 % 1016,6 hPa 0,0 l/m 0,4 km/h (0 Bft) 0 min 2 min 0,0 km/h (0 Bft)
12.10.2010 18:56 19,2 C 7,6 C 0,2 UV-I 0,0 C 45 % 84 % 0 % 1016,6 hPa 0,0 l/m 0,8 km/h (0 Bft) 0 min 0 min 3,5 km/h (1 Bft)
12.10.2010 18:58 19,1 C 7,5 C 0,0 UV-I 0,0 C 45 % 84 % 0 % 1016,6 hPa 0,0 l/m 0,4 km/h (0 Bft) 0 min 2 min 4,2 km/h (1 Bft)
12.10.2010 19:00 19,1 C 7,5 C 0,0 UV-I 0,0 C 45 % 85 % 0 % 1016,6 hPa 0,0 l/m 0,8 km/h (0 Bft) 0 min 0 min 0,0 km/h (0 Bft)
12.10.2010 19:02 19,0 C 7,4 C 0,0 UV-I 0,0 C 45 % 85 % 0 % 1016,6 hPa 0,0 l/m 0,8 km/h (0 Bft) 0 min 2 min 4,2 km/h (1 Bft)
12.10.2010 19:04 19,0 C 7,5 C 0,0 UV-I 0,0 C 45 % 85 % 0 % 1016,6 hPa 0,0 l/m 1,2 km/h (1 Bft) 0 min 2 min 0,0 km/h (0 Bft)
12.10.2010 19:06 19,0 C 7,5 C 0,0 UV-I 0,0 C 45 % 85 % 0 % 1016,2 hPa 0,0 l/m 0,8 km/h (0 Bft) 0 min 2 min 0,0 km/h (0 Bft)
12.10.2010 19:08 18,9 C 7,4 C 0,0 UV-I 0,0 C 45 % 85 % 0 % 1016,2 hPa 0,0 l/m 0,8 km/h (0 Bft) 0 min 2 min 0,0 km/h (0 Bft)
12.10.2010 19:10 18,8 C 7,3 C 0,0 UV-I 0,0 C 45 % 85 % 0 % 1016,2 hPa 0,0 l/m 0,4 km/h (0 Bft) 0 min 2 min 0,0 km/h (0 Bft)
12.10.2010 19:12 18,8 C 7,2 C 0,0 UV-I 0,0 C 45 % 85 % 0 % 1016,2 hPa 0,0 l/m 0,4 km/h (0 Bft) 0 min 2 min 0,0 km/h (0 Bft)
12.10.2010 19:14 18,8 C 7,2 C 0,0 UV-I 0,0 C 45 % 85 % 0 % 1016,2 hPa 0,0 l/m 0,0 km/h (0 Bft) 0 min 2 min 0,0 km/h (0 Bft)
12.10.2010 19:16 18,8 C 7,3 C 0,0 UV-I 0,0 C 46 % 85 % 0 % 1016,2 hPa 0,0 l/m 0,0 km/h (0 Bft) 0 min 2 min 0,0 km/h (0 Bft)
12.10.2010 19:18 18,7 C 7,1 C 0,0 UV-I 0,0 C 46 % 85 % 0 % 1016,2 hPa 0,0 l/m 0,0 km/h (0 Bft) 0 min 2 min 0,0 km/h (0 Bft)
12.10.2010 19:20 18,7 C 7,1 C 0,0 UV-I 0,0 C 46 % 85 % 0 % 1016,2 hPa 0,0 l/m 0,0 km/h (0 Bft) 0 min 2 min 0,0 km/h (0 Bft)
12.10.2010 19:22 18,7 C 7,1 C 0,0 UV-I 0,0 C 46 % 85 % 0 % 1016,2 hPa 0,0 l/m 0,0 km/h (0 Bft) 0 min 2 min 0,0 km/h (0 Bft)
12.10.2010 19:24 18,6 C 7,1 C 0,0 UV-I 0,0 C 46 % 85 % 0 % 1016,2 hPa 0,0 l/m 0,0 km/h (0 Bft) 0 min 2 min 0,0 km/h (0 Bft)
12.10.2010 19:26 18,6 C 7,0 C 0,0 UV-I 0,0 C 46 % 85 % 0 % 1016,6 hPa 0,0 l/m 0,0 km/h (0 Bft) 0 min 0 min 0,0 km/h (0 Bft)
12.10.2010 19:28 18,6 C 7,1 C 0,0 UV-I 0,0 C 46 % 85 % 0 % 1016,6 hPa 0,0 l/m 0,0 km/h (0 Bft) 0 min 2 min 3,2 km/h (1 Bft)
12.10.2010 19:30 18,6 C 7,1 C 0,0 UV-I 0,0 C 46 % 85 % 0 % 1016,6 hPa 0,0 l/m 0,0 km/h (0 Bft) 0 min 2 min 0,0 km/h (0 Bft)
12.10.2010 19:32 18,5 C 7,1 C 0,0 UV-I 0,0 C 46 % 86 % 0 % 1016,6 hPa 0,0 l/m 0,0 km/h (0 Bft) 0 min 2 min 0,0 km/h (0 Bft)
12.10.2010 19:34 18,5 C 7,1 C 0,0 UV-I 0,0 C 46 % 86 % 0 % 1016,6 hPa 0,0 l/m 0,4 km/h (0 Bft) 0 min 0 min 3,9 km/h (1 Bft)
12.10.2010 19:36 18,5 C 6,9 C 0,0 UV-I 0,0 C 46 % 86 % 0 % 1016,6 hPa 0,0 l/m 0,4 km/h (0 Bft) 0 min 0 min 0,0 km/h (0 Bft)
12.10.2010 19:38 18,5 C 6,9 C 0,0 UV-I 0,0 C 47 % 86 % 0 % 1016,6 hPa 0,0 l/m 0,4 km/h (0 Bft) 0 min 0 min 0,0 km/h (0 Bft)
12.10.2010 19:40 18,4 C 6,9 C 0,0 UV-I 0,0 C 46 % 86 % 0 % 1016,6 hPa 0,0 l/m 0,8 km/h (0 Bft) 0 min 2 min 3,2 km/h (1 Bft)
12.10.2010 19:42 18,4 C 6,9 C 0,0 UV-I 0,0 C 47 % 86 % 0 % 1016,6 hPa 0,0 l/m 0,8 km/h (0 Bft) 0 min 2 min 0,0 km/h (0 Bft)
12.10.2010 19:44 18,4 C 6,9 C 0,0 UV-I 0,0 C 47 % 86 % 0 % 1016,6 hPa 0,0 l/m 0,4 km/h (0 Bft) 0 min 2 min 0,0 km/h (0 Bft)
12.10.2010 19:46 18,4 C 6,9 C 0,0 UV-I 0,0 C 47 % 87 % 0 % 1016,5 hPa 0,0 l/m 0,8 km/h (0 Bft) 0 min 2 min 4,8 km/h (1 Bft)
12.10.2010 19:48 18,2 C 6,8 C 0,0 UV-I 0,0 C 47 % 87 % 0 % 1016,5 hPa 0,0 l/m 1,6 km/h (1 Bft) 0 min 2 min 4,8 km/h (1 Bft)
12.10.2010 19:50 18,2 C 6,8 C 0,0 UV-I 0,0 C 47 % 87 % 0 % 1016,5 hPa 0,0 l/m 2,0 km/h (1 Bft) 0 min 2 min 3,5 km/h (1 Bft)
12.10.2010 19:52 18,3 C 6,8 C 0,0 UV-I 0,0 C 47 % 87 % 0 % 1016,5 hPa 0,0 l/m 2,0 km/h (1 Bft) 0 min 2 min 0,0 km/h (0 Bft)
12.10.2010 19:54 18,3 C 6,8 C 0,0 UV-I 0,0 C 47 % 87 % 0 % 1016,5 hPa 0,0 l/m 2,4 km/h (1 Bft) 0 min 2 min 0,0 km/h (0 Bft)
12.10.2010 19:56 18,2 C 6,8 C 0,0 UV-I 0,0 C 47 % 87 % 0 % 1016,5 hPa 0,0 l/m 2,4 km/h (1 Bft) 0 min 2 min 3,2 km/h (1 Bft)
12.10.2010 19:58 18,2 C 6,7 C 0,0 UV-I 0,0 C 47 % 87 % 0 % 1016,5 hPa 0,0 l/m 1,6 km/h (1 Bft) 0 min 2 min 0,0 km/h (0 Bft)
12.10.2010 20:00 18,2 C 6,7 C 0,0 UV-I 0,0 C 47 % 87 % 0 % 1016,5 hPa 0,0 l/m 1,2 km/h (1 Bft) 0 min 2 min 4,2 km/h (1 Bft)
12.10.2010 20:02 18,2 C 6,7 C 0,0 UV-I 0,0 C 47 % 87 % 0 % 1016,5 hPa 0,0 l/m 1,2 km/h (1 Bft) 0 min 2 min 3,9 km/h (1 Bft)
12.10.2010 20:04 18,2 C 6,7 C 0,0 UV-I 0,0 C 47 % 87 % 0 % 1016,5 hPa 0,0 l/m 1,2 km/h (1 Bft) 0 min 2 min 5,5 km/h (1 Bft)
12.10.2010 20:06 18,1 C 6,7 C 0,0 UV-I 0,0 C 47 % 87 % 0 % 1016,6 hPa 0,0 l/m 2,8 km/h (1 Bft) 0 min 2 min 8,4 km/h (2 Bft)
12.10.2010 20:08 18,1 C 6,5 C 0,0 UV-I 0,0 C 47 % 87 % 0 % 1016,6 hPa 0,0 l/m 4,0 km/h (1 Bft) 0 min 2 min 7,1 km/h (2 Bft)
12.10.2010 20:10 18,1 C 6,5 C 0,0 UV-I 0,0 C 47 % 87 % 0 % 1016,6 hPa 0,0 l/m 4,8 km/h (1 Bft) 0 min 2 min 3,9 km/h (1 Bft)
12.10.2010 20:12 18,1 C 6,4 C 0,0 UV-I 0,0 C 47 % 87 % 0 % 1016,6 hPa 0,0 l/m 6,0 km/h (2 Bft) 0 min 2 min 6,8 km/h (2 Bft)
12.10.2010 20:14 18,0 C 6,4 C 0,0 UV-I 0,0 C 48 % 87 % 0 % 1016,6 hPa 0,0 l/m 6,4 km/h (2 Bft) 0 min 2 min 6,1 km/h (2 Bft)
12.10.2010 20:16 18,1 C 6,4 C 0,0 UV-I 0,0 C 48 % 87 % 0 % 1016,6 hPa 0,0 l/m 6,8 km/h (2 Bft) 0 min 2 min 5,5 km/h (1 Bft)
12.10.2010 20:18 18,0 C 6,3 C 0,0 UV-I 0,0 C 48 % 87 % 0 % 1016,6 hPa 0,0 l/m 6,4 km/h (2 Bft) 0 min 2 min 5,5 km/h (1 Bft)
12.10.2010 20:20 18,0 C 6,3 C 0,0 UV-I 0,0 C 48 % 87 % 0 % 1016,6 hPa 0,0 l/m 6,4 km/h (2 Bft) 0 min 2 min 8,0 km/h (2 Bft)
12.10.2010 20:22 18,0 C 6,3 C 0,0 UV-I 0,0 C 48 % 87 % 0 % 1016,6 hPa 0,0 l/m 6,4 km/h (2 Bft) 0 min 2 min 4,2 km/h (1 Bft)
12.10.2010 20:24 18,0 C 6,3 C 0,0 UV-I 0,0 C 48 % 87 % 0 % 1016,6 hPa 0,0 l/m 5,6 km/h (1 Bft) 0 min 2 min 4,5 km/h (1 Bft)
12.10.2010 20:26 18,0 C 6,2 C 0,0 UV-I 0,0 C 48 % 87 % 0 % 1016,4 hPa 0,0 l/m 4,8 km/h (1 Bft) 0 min 2 min 0,0 km/h (0 Bft)
12.10.2010 20:28 18,0 C 6,1 C 0,0 UV-I 0,0 C 48 % 87 % 0 % 1016,4 hPa 0,0 l/m 4,4 km/h (1 Bft) 0 min 2 min 4,5 km/h (1 Bft)
12.10.2010 20:30 17,9 C 6,1 C 0,0 UV-I 0,0 C 48 % 87 % 0 % 1016,4 hPa 0,0 l/m 3,6 km/h (1 Bft) 0 min 2 min 3,9 km/h (1 Bft)
12.10.2010 20:32 17,9 C 6,0 C 0,0 UV-I 0,0 C 48 % 87 % 0 % 1016,4 hPa 0,0 l/m 3,2 km/h (1 Bft) 0 min 2 min 3,9 km/h (1 Bft)
12.10.2010 20:34 17,9 C 6,0 C 0,0 UV-I 0,0 C 48 % 87 % 0 % 1016,4 hPa 0,0 l/m 2,8 km/h (1 Bft) 0 min 2 min 3,5 km/h (1 Bft)
12.10.2010 20:36 17,9 C 6,0 C 0,0 UV-I 0,0 C 48 % 87 % 0 % 1016,4 hPa 0,0 l/m 2,8 km/h (1 Bft) 0 min 2 min 3,9 km/h (1 Bft)
12.10.2010 20:38 17,8 C 6,0 C 0,0 UV-I 0,0 C 48 % 87 % 0 % 1016,4 hPa 0,0 l/m 3,2 km/h (1 Bft) 0 min 2 min 3,9 km/h (1 Bft)
12.10.2010 20:40 17,8 C 5,9 C 0,0 UV-I 0,0 C 48 % 88 % 0 % 1016,4 hPa 0,0 l/m 3,6 km/h (1 Bft) 0 min 2 min 4,5 km/h (1 Bft)
12.10.2010 20:42 17,8 C 5,8 C 0,0 UV-I 0,0 C 48 % 87 % 0 % 1016,4 hPa 0,0 l/m 3,6 km/h (1 Bft) 0 min 2 min 6,8 km/h (2 Bft)
12.10.2010 20:44 17,8 C 5,8 C 0,0 UV-I 0,0 C 48 % 87 % 0 % 1016,4 hPa 0,0 l/m 3,2 km/h (1 Bft) 0 min 2 min 0,0 km/h (0 Bft)
12.10.2010 20:46 17,8 C 5,8 C 0,0 UV-I 0,0 C 48 % 88 % 0 % 1016,9 hPa 0,0 l/m 2,4 km/h (1 Bft) 0 min 2 min 0,0 km/h (0 Bft)
12.10.2010 20:48 17,8 C 5,7 C 0,0 UV-I 0,0 C 48 % 88 % 0 % 1016,9 hPa 0,0 l/m 2,0 km/h (1 Bft) 0 min 2 min 0,0 km/h (0 Bft)
12.10.2010 20:50 17,7 C 5,7 C 0,0 UV-I 0,0 C 48 % 88 % 0 % 1016,9 hPa 0,0 l/m 1,6 km/h (1 Bft) 0 min 2 min 4,5 km/h (1 Bft)
12.10.2010 20:52 17,7 C 5,6 C 0,0 UV-I 0,0 C 48 % 88 % 0 % 1016,9 hPa 0,0 l/m 0,8 km/h (0 Bft) 0 min 2 min 0,0 km/h (0 Bft)
12.10.2010 20:54 17,7 C 5,7 C 0,0 UV-I 0,0 C 48 % 88 % 0 % 1016,9 hPa 0,0 l/m 0,4 km/h (0 Bft) 0 min 2 min 0,0 km/h (0 Bft)
12.10.2010 20:56 17,7 C 5,6 C 0,0 UV-I 0,0 C 48 % 88 % 0 % 1016,9 hPa 0,0 l/m 0,4 km/h (0 Bft) 0 min 2 min 0,0 km/h (0 Bft)
12.10.2010 20:58 17,7 C 5,5 C 0,0 UV-I 0,0 C 48 % 88 % 0 % 1016,9 hPa 0,0 l/m 0,4 km/h (0 Bft) 0 min 2 min 0,0 km/h (0 Bft)
12.10.2010 21:00 17,7 C 5,5 C 0,0 UV-I 0,0 C 48 % 88 % 0 % 1016,9 hPa 0,0 l/m 0,4 km/h (0 Bft) 0 min 2 min 0,0 km/h (0 Bft)
12.10.2010 21:02 17,6 C 5,4 C 0,0 UV-I 0,0 C 48 % 88 % 0 % 1016,9 hPa 0,0 l/m 0,4 km/h (0 Bft) 0 min 2 min 0,0 km/h (0 Bft)
12.10.2010 21:04 17,6 C 5,5 C 0,0 UV-I 0,0 C 48 % 88 % 0 % 1016,9 hPa 0,0 l/m 0,4 km/h (0 Bft) 0 min 2 min 0,0 km/h (0 Bft)
12.10.2010 21:06 17,6 C 5,3 C 0,0 UV-I 0,0 C 48 % 88 % 0 % 1016,9 hPa 0,0 l/m 0,4 km/h (0 Bft) 0 min 2 min 0,0 km/h (0 Bft)
12.10.2010 21:08 17,6 C 5,3 C 0,0 UV-I 0,0 C 48 % 88 % 0 % 1016,9 hPa 0,0 l/m 0,4 km/h (0 Bft) 0 min 2 min 0,0 km/h (0 Bft)
12.10.2010 21:10 17,6 C 5,2 C 0,0 UV-I 0,0 C 48 % 88 % 0 % 1016,9 hPa 0,0 l/m 0,4 km/h (0 Bft) 0 min 2 min 0,0 km/h (0 Bft)
12.10.2010 21:12 17,6 C 5,2 C 0,0 UV-I 0,0 C 48 % 88 % 0 % 1016,9 hPa 0,0 l/m 0,0 km/h (0 Bft) 0 min 2 min 0,0 km/h (0 Bft)
12.10.2010 21:14 17,6 C 5,2 C 0,0 UV-I 0,0 C 48 % 88 % 0 % 1016,9 hPa 0,0 l/m 0,0 km/h (0 Bft) 0 min 2 min 0,0 km/h (0 Bft)
12.10.2010 21:16 17,6 C 5,2 C 0,0 UV-I 0,0 C 48 % 89 % 0 % 1016,9 hPa 0,0 l/m 0,0 km/h (0 Bft) 0 min 2 min 0,0 km/h (0 Bft)
12.10.2010 21:18 17,6 C 5,1 C 0,0 UV-I 0,0 C 48 % 89 % 0 % 1016,9 hPa 0,0 l/m 0,0 km/h (0 Bft) 0 min 2 min 0,0 km/h (0 Bft)
12.10.2010 21:20 17,6 C 5,0 C 0,0 UV-I 0,0 C 48 % 89 % 0 % 1016,9 hPa 0,0 l/m 0,0 km/h (0 Bft) 0 min 2 min 0,0 km/h (0 Bft)
12.10.2010 21:22 17,5 C 5,1 C 0,0 UV-I 0,0 C 48 % 89 % 0 % 1016,9 hPa 0,0 l/m 0,0 km/h (0 Bft) 0 min 2 min 0,0 km/h (0 Bft)
12.10.2010 21:24 17,5 C 5,1 C 0,0 UV-I 0,0 C 48 % 89 % 0 % 1016,9 hPa 0,0 l/m 0,0 km/h (0 Bft) 0 min 2 min 0,0 km/h (0 Bft)
12.10.2010 21:26 17,5 C 4,9 C 0,0 UV-I 0,0 C 48 % 89 % 0 % 1016,8 hPa 0,0 l/m 0,0 km/h (0 Bft) 0 min 2 min 0,0 km/h (0 Bft)
12.10.2010 21:28 17,5 C 4,9 C 0,0 UV-I 0,0 C 48 % 89 % 0 % 1016,8 hPa 0,0 l/m 0,0 km/h (0 Bft) 0 min 2 min 0,0 km/h (0 Bft)
12.10.2010 21:30 17,5 C 4,8 C 0,0 UV-I 0,0 C 48 % 88 % 0 % 1016,8 hPa 0,0 l/m 0,0 km/h (0 Bft) 0 min 2 min 0,0 km/h (0 Bft)
12.10.2010 21:32 17,5 C 4,8 C 0,0 UV-I 0,0 C 48 % 88 % 0 % 1016,8 hPa 0,0 l/m 0,0 km/h (0 Bft) 0 min 2 min 0,0 km/h (0 Bft)
12.10.2010 21:34 17,4 C 4,8 C 0,0 UV-I 0,0 C 48 % 89 % 0 % 1016,8 hPa 0,0 l/m 0,0 km/h (0 Bft) 0 min 2 min 0,0 km/h (0 Bft)
12.10.2010 21:36 17,4 C 4,7 C 0,0 UV-I 0,0 C 48 % 89 % 0 % 1016,8 hPa 0,0 l/m 0,0 km/h (0 Bft) 0 min 2 min 0,0 km/h (0 Bft)
12.10.2010 21:38 17,4 C 4,7 C 0,0 UV-I 0,0 C 48 % 89 % 0 % 1016,8 hPa 0,0 l/m 0,0 km/h (0 Bft) 0 min 2 min 0,0 km/h (0 Bft)
12.10.2010 21:40 17,4 C 4,7 C 0,0 UV-I 0,0 C 48 % 89 % 0 % 1016,8 hPa 0,0 l/m 0,0 km/h (0 Bft) 0 min 2 min 0,0 km/h (0 Bft)
12.10.2010 21:42 17,4 C 4,7 C 0,0 UV-I 0,0 C 48 % 89 % 0 % 1016,8 hPa 0,0 l/m 0,0 km/h (0 Bft) 0 min 2 min 0,0 km/h (0 Bft)
12.10.2010 21:44 17,4 C 4,7 C 0,0 UV-I 0,0 C 48 % 89 % 0 % 1016,8 hPa 0,0 l/m 0,0 km/h (0 Bft) 0 min 2 min 0,0 km/h (0 Bft)
12.10.2010 21:46 17,4 C 4,5 C 0,0 UV-I 0,0 C 48 % 89 % 0 % 1016,8 hPa 0,0 l/m 0,0 km/h (0 Bft) 0 min 2 min 0,0 km/h (0 Bft)
12.10.2010 21:48 17,4 C 4,5 C 0,0 UV-I 0,0 C 48 % 89 % 0 % 1016,8 hPa 0,0 l/m 0,0 km/h (0 Bft) 0 min 2 min 0,0 km/h (0 Bft)
12.10.2010 21:50 17,4 C 4,4 C 0,0 UV-I 0,0 C 48 % 89 % 0 % 1016,8 hPa 0,0 l/m 0,0 km/h (0 Bft) 0 min 2 min 0,0 km/h (0 Bft)
12.10.2010 21:52 17,4 C 4,4 C 0,0 UV-I 0,0 C 48 % 89 % 0 % 1016,8 hPa 0,0 l/m 0,0 km/h (0 Bft) 0 min 2 min 0,0 km/h (0 Bft)
12.10.2010 21:54 17,4 C 4,4 C 0,0 UV-I 0,0 C 48 % 89 % 0 % 1016,8 hPa 0,0 l/m 0,0 km/h (0 Bft) 0 min 2 min 0,0 km/h (0 Bft)
12.10.2010 21:56 17,2 C 4,5 C 0,0 UV-I 0,0 C 48 % 89 % 0 % 1016,8 hPa 0,0 l/m 0,0 km/h (0 Bft) 0 min 2 min 0,0 km/h (0 Bft)
12.10.2010 21:58 17,2 C 4,4 C 0,0 UV-I 0,0 C 48 % 89 % 0 % 1016,8 hPa 0,0 l/m 0,0 km/h (0 Bft) 0 min 2 min 0,0 km/h (0 Bft)
12.10.2010 22:00 17,2 C 4,3 C 0,0 UV-I 0,0 C 48 % 89 % 0 % 1016,8 hPa 0,0 l/m 0,0 km/h (0 Bft) 0 min 2 min 0,0 km/h (0 Bft)
12.10.2010 22:02 17,2 C 4,3 C 0,0 UV-I 0,0 C 48 % 90 % 0 % 1016,8 hPa 0,0 l/m 0,0 km/h (0 Bft) 0 min 2 min 0,0 km/h (0 Bft)
12.10.2010 22:04 17,2 C 4,3 C 0,0 UV-I 0,0 C 48 % 90 % 0 % 1016,8 hPa 0,0 l/m 0,0 km/h (0 Bft) 0 min 2 min 0,0 km/h (0 Bft)
12.10.2010 22:06 17,2 C 4,3 C 0,0 UV-I 0,0 C 48 % 90 % 0 % 1016,6 hPa 0,0 l/m 0,0 km/h (0 Bft) 0 min 2 min 0,0 km/h (0 Bft)
12.10.2010 22:08 17,3 C 4,3 C 0,0 UV-I 0,0 C 48 % 90 % 0 % 1016,6 hPa 0,0 l/m 0,0 km/h (0 Bft) 0 min 2 min 0,0 km/h (0 Bft)
12.10.2010 22:10 17,3 C 4,3 C 0,0 UV-I 0,0 C 48 % 90 % 0 % 1016,6 hPa 0,0 l/m 0,0 km/h (0 Bft) 0 min 2 min 0,0 km/h (0 Bft)
12.10.2010 22:12 17,3 C 4,3 C 0,0 UV-I 0,0 C 48 % 90 % 0 % 1016,6 hPa 0,0 l/m 0,0 km/h (0 Bft) 0 min 2 min 0,0 km/h (0 Bft)
12.10.2010 22:14 17,3 C 4,3 C 0,0 UV-I 0,0 C 48 % 90 % 0 % 1016,6 hPa 0,0 l/m 0,0 km/h (0 Bft) 0 min 2 min 0,0 km/h (0 Bft)
12.10.2010 22:16 17,2 C 4,2 C 0,0 UV-I 0,0 C 48 % 90 % 0 % 1016,6 hPa 0,0 l/m 0,0 km/h (0 Bft) 0 min 2 min 0,0 km/h (0 Bft)
12.10.2010 22:18 17,2 C 4,1 C 0,0 UV-I 0,0 C 48 % 90 % 0 % 1016,6 hPa 0,0 l/m 0,0 km/h (0 Bft) 0 min 2 min 0,0 km/h (0 Bft)
12.10.2010 22:20 17,2 C 4,1 C 0,0 UV-I 0,0 C 48 % 90 % 0 % 1016,6 hPa 0,0 l/m 0,0 km/h (0 Bft) 0 min 2 min 0,0 km/h (0 Bft)
12.10.2010 22:22 17,2 C 4,1 C 0,0 UV-I 0,0 C 48 % 90 % 0 % 1016,6 hPa 0,0 l/m 0,0 km/h (0 Bft) 0 min 2 min 0,0 km/h (0 Bft)
12.10.2010 22:24 17,2 C 4,1 C 0,0 UV-I 0,0 C 48 % 90 % 0 % 1016,6 hPa 0,0 l/m 0,0 km/h (0 Bft) 0 min 2 min 0,0 km/h (0 Bft)
12.10.2010 22:26 17,2 C 4,1 C 0,0 UV-I 0,0 C 48 % 90 % 0 % 1016,7 hPa 0,0 l/m 0,0 km/h (0 Bft) 0 min 2 min 0,0 km/h (0 Bft)
12.10.2010 22:28 17,2 C 4,0 C 0,0 UV-I 0,0 C 48 % 90 % 0 % 1016,7 hPa 0,0 l/m 0,0 km/h (0 Bft) 0 min 2 min 0,0 km/h (0 Bft)
12.10.2010 22:30 17,2 C 4,0 C 0,0 UV-I 0,0 C 48 % 90 % 0 % 1016,7 hPa 0,0 l/m 0,0 km/h (0 Bft) 0 min 2 min 0,0 km/h (0 Bft)
12.10.2010 22:32 17,2 C 4,1 C 0,0 UV-I 0,0 C 48 % 90 % 0 % 1016,7 hPa 0,0 l/m 0,0 km/h (0 Bft) 0 min 2 min 0,0 km/h (0 Bft)
12.10.2010 22:34 17,2 C 4,0 C 0,0 UV-I 0,0 C 48 % 90 % 0 % 1016,7 hPa 0,0 l/m 0,0 km/h (0 Bft) 0 min 2 min 0,0 km/h (0 Bft)
12.10.2010 22:36 17,2 C 4,0 C 0,0 UV-I 0,0 C 48 % 90 % 0 % 1016,7 hPa 0,0 l/m 0,0 km/h (0 Bft) 0 min 2 min 0,0 km/h (0 Bft)
12.10.2010 22:38 17,2 C 4,0 C 0,0 UV-I 0,0 C 48 % 90 % 0 % 1016,7 hPa 0,0 l/m 0,0 km/h (0 Bft) 0 min 2 min 0,0 km/h (0 Bft)
12.10.2010 22:40 17,2 C 4,0 C 0,0 UV-I 0,0 C 48 % 90 % 0 % 1016,7 hPa 0,0 l/m 0,0 km/h (0 Bft) 0 min 2 min 0,0 km/h (0 Bft)
12.10.2010 22:42 17,2 C 3,9 C 0,0 UV-I 0,0 C 48 % 90 % 0 % 1016,7 hPa 0,0 l/m 0,0 km/h (0 Bft) 0 min 2 min 0,0 km/h (0 Bft)
12.10.2010 22:44 17,1 C 3,9 C 0,0 UV-I 0,0 C 48 % 90 % 0 % 1016,7 hPa 0,0 l/m 0,0 km/h (0 Bft) 0 min 2 min 0,0 km/h (0 Bft)
12.10.2010 22:46 17,1 C 3,8 C 0,0 UV-I 0,0 C 48 % 90 % 0 % 1016,6 hPa 0,0 l/m 0,0 km/h (0 Bft) 0 min 2 min 0,0 km/h (0 Bft)
12.10.2010 22:48 17,1 C 3,9 C 0,0 UV-I 0,0 C 48 % 90 % 0 % 1016,6 hPa 0,0 l/m 0,0 km/h (0 Bft) 0 min 2 min 0,0 km/h (0 Bft)
12.10.2010 22:50 17,1 C 3,9 C 0,0 UV-I 0,0 C 48 % 90 % 0 % 1016,6 hPa 0,0 l/m 0,0 km/h (0 Bft) 0 min 2 min 0,0 km/h (0 Bft)
12.10.2010 22:52 17,1 C 3,8 C 0,0 UV-I 0,0 C 48 % 91 % 0 % 1016,6 hPa 0,0 l/m 0,0 km/h (0 Bft) 0 min 2 min 0,0 km/h (0 Bft)
12.10.2010 22:54 17,1 C 3,9 C 0,0 UV-I 0,0 C 48 % 91 % 0 % 1016,6 hPa 0,0 l/m 0,0 km/h (0 Bft) 0 min 2 min 0,0 km/h (0 Bft)
12.10.2010 22:56 17,1 C 3,9 C 0,0 UV-I 0,0 C 48 % 91 % 0 % 1016,6 hPa 0,0 l/m 0,0 km/h (0 Bft) 0 min 2 min 0,0 km/h (0 Bft)
12.10.2010 22:58 17,1 C 3,8 C 0,0 UV-I 0,0 C 48 % 91 % 0 % 1016,6 hPa 0,0 l/m 0,0 km/h (0 Bft) 0 min 2 min 0,0 km/h (0 Bft)
12.10.2010 23:00 17,1 C 3,8 C 0,0 UV-I 0,0 C 48 % 91 % 0 % 1016,6 hPa 0,0 l/m 0,0 km/h (0 Bft) 0 min 2 min 0,0 km/h (0 Bft)
12.10.2010 23:02 17,1 C 3,7 C 0,0 UV-I 0,0 C 48 % 91 % 0 % 1016,6 hPa 0,0 l/m 0,0 km/h (0 Bft) 0 min 2 min 0,0 km/h (0 Bft)
12.10.2010 23:04 17,1 C 3,7 C 0,0 UV-I 0,0 C 48 % 91 % 0 % 1016,6 hPa 0,0 l/m 0,0 km/h (0 Bft) 0 min 2 min 0,0 km/h (0 Bft)
12.10.2010 23:06 17,1 C 3,7 C 0,0 UV-I 0,0 C 48 % 91 % 0 % 1016,8 hPa 0,0 l/m 0,0 km/h (0 Bft) 0 min 2 min 0,0 km/h (0 Bft)
12.10.2010 23:08 17,1 C 3,6 C 0,0 UV-I 0,0 C 48 % 91 % 0 % 1016,8 hPa 0,0 l/m 0,0 km/h (0 Bft) 0 min 2 min 0,0 km/h (0 Bft)
12.10.2010 23:10 17,0 C 3,7 C 0,0 UV-I 0,0 C 48 % 91 % 0 % 1016,8 hPa 0,0 l/m 0,0 km/h (0 Bft) 0 min 2 min 0,0 km/h (0 Bft)
12.10.2010 23:12 17,0 C 3,6 C 0,0 UV-I 0,0 C 48 % 91 % 0 % 1016,8 hPa 0,0 l/m 0,0 km/h (0 Bft) 0 min 2 min 0,0 km/h (0 Bft)
12.10.2010 23:14 17,0 C 3,6 C 0,0 UV-I 0,0 C 48 % 91 % 0 % 1016,8 hPa 0,0 l/m 0,0 km/h (0 Bft) 0 min 2 min 0,0 km/h (0 Bft)
12.10.2010 23:16 17,0 C 3,6 C 0,0 UV-I 0,0 C 48 % 91 % 0 % 1016,8 hPa 0,0 l/m 0,0 km/h (0 Bft) 0 min 2 min 0,0 km/h (0 Bft)
12.10.2010 23:18 17,0 C 3,6 C 0,0 UV-I 0,0 C 48 % 91 % 0 % 1016,8 hPa 0,0 l/m 0,0 km/h (0 Bft) 0 min 2 min 0,0 km/h (0 Bft)
12.10.2010 23:20 17,0 C 3,7 C 0,0 UV-I 0,0 C 48 % 91 % 0 % 1016,8 hPa 0,0 l/m 0,0 km/h (0 Bft) 0 min 2 min 0,0 km/h (0 Bft)
12.10.2010 23:22 17,0 C 3,6 C 0,0 UV-I 0,0 C 48 % 91 % 0 % 1016,8 hPa 0,0 l/m 0,0 km/h (0 Bft) 0 min 2 min 0,0 km/h (0 Bft)
12.10.2010 23:24 17,0 C 3,6 C 0,0 UV-I 0,0 C 48 % 91 % 0 % 1016,8 hPa 0,0 l/m 0,0 km/h (0 Bft) 0 min 2 min 0,0 km/h (0 Bft)
12.10.2010 23:26 17,0 C 3,6 C 0,0 UV-I 0,0 C 48 % 91 % 0 % 1016,8 hPa 0,0 l/m 0,0 km/h (0 Bft) 0 min 2 min 0,0 km/h (0 Bft)
12.10.2010 23:28 17,0 C 3,5 C 0,0 UV-I 0,0 C 48 % 91 % 0 % 1016,8 hPa 0,0 l/m 0,0 km/h (0 Bft) 0 min 2 min 0,0 km/h (0 Bft)
12.10.2010 23:30 17,0 C 3,6 C 0,0 UV-I 0,0 C 48 % 91 % 0 % 1016,8 hPa 0,0 l/m 0,0 km/h (0 Bft) 0 min 2 min 0,0 km/h (0 Bft)
12.10.2010 23:32 17,0 C 3,5 C 0,0 UV-I 0,0 C 48 % 91 % 0 % 1016,8 hPa 0,0 l/m 0,0 km/h (0 Bft) 0 min 2 min 0,0 km/h (0 Bft)
12.10.2010 23:34 17,0 C 3,5 C 0,0 UV-I 0,0 C 48 % 92 % 0 % 1016,8 hPa 0,0 l/m 0,0 km/h (0 Bft) 0 min 2 min 0,0 km/h (0 Bft)
12.10.2010 23:36 16,9 C 3,5 C 0,0 UV-I 0,0 C 48 % 92 % 0 % 1016,8 hPa 0,0 l/m 0,0 km/h (0 Bft) 0 min 2 min 0,0 km/h (0 Bft)
12.10.2010 23:38 17,0 C 3,5 C 0,0 UV-I 0,0 C 48 % 92 % 0 % 1016,8 hPa 0,0 l/m 0,0 km/h (0 Bft) 0 min 2 min 0,0 km/h (0 Bft)
12.10.2010 23:40 17,0 C 3,5 C 0,0 UV-I 0,0 C 48 % 92 % 0 % 1016,8 hPa 0,0 l/m 0,0 km/h (0 Bft) 0 min 2 min 0,0 km/h (0 Bft)
12.10.2010 23:42 17,0 C 3,5 C 0,0 UV-I 0,0 C 48 % 92 % 0 % 1016,8 hPa 0,0 l/m 0,0 km/h (0 Bft) 0 min 2 min 0,0 km/h (0 Bft)
12.10.2010 23:44 17,0 C 3,5 C 0,0 UV-I 0,0 C 48 % 92 % 0 % 1016,8 hPa 0,0 l/m 0,0 km/h (0 Bft) 0 min 2 min 0,0 km/h (0 Bft)
12.10.2010 23:46 17,0 C 3,5 C 0,0 UV-I 0,0 C 48 % 92 % 0 % 1016,2 hPa 0,0 l/m 0,0 km/h (0 Bft) 0 min 2 min 0,0 km/h (0 Bft)
12.10.2010 23:48 16,9 C 3,5 C 0,0 UV-I 0,0 C 48 % 92 % 0 % 1016,2 hPa 0,0 l/m 0,0 km/h (0 Bft) 0 min 2 min 0,0 km/h (0 Bft)
12.10.2010 23:50 16,9 C 3,4 C 0,0 UV-I 0,0 C 48 % 92 % 0 % 1016,2 hPa 0,0 l/m 0,0 km/h (0 Bft) 0 min 2 min 0,0 km/h (0 Bft)
12.10.2010 23:52 16,9 C 3,5 C 0,0 UV-I 0,0 C 48 % 92 % 0 % 1016,2 hPa 0,0 l/m 0,0 km/h (0 Bft) 0 min 2 min 0,0 km/h (0 Bft)
12.10.2010 23:54 16,9 C 3,5 C 0,0 UV-I 0,0 C 48 % 92 % 0 % 1016,2 hPa 0,0 l/m 0,0 km/h (0 Bft) 0 min 2 min 0,0 km/h (0 Bft)
12.10.2010 23:56 16,9 C 3,5 C 0,0 UV-I 0,0 C 48 % 92 % 0 % 1016,2 hPa 0,0 l/m 0,0 km/h (0 Bft) 0 min 2 min 0,0 km/h (0 Bft)
12.10.2010 23:58 16,9 C 3,5 C 0,0 UV-I 0,0 C 48 % 92 % 0 % 1016,2 hPa 0,0 l/m 0,0 km/h (0 Bft) 0 min 2 min 0,0 km/h (0 Bft)
_ Min-Zeit 08:26 23:50 01:02 00:00 16:50 00:00 00:00 05:26 - 00:00 - - 00:00
Minimum _ 16,7 C 3,4 C 0,0 UV-I 0,0 C 42 % 77 % 0 % 1015,7 hPa - 0,0 km/h (0 Bft) - - 0,0 km/h (0 Bft)
_ Max-Zeit 17:14 17:04 15:32 15:40 09:26 09:16 15:28 16:46 00:00 17:26 15:18 00:00 16:30
Maximum _ 21,2 C 9,4 C 2,8 UV-I 4,8 C 50 % 94 % 100 % 1019,2 hPa 0,0 l/m 14,1 km/h
S-SW (3 Bft)
2 min 2 min 25,1 km/h
S-SW (4 Bft)
Durchschnitt _ 17,9 C 5,8 C 0,6 UV-I 0,6 C 47 % 88 % 15 % 1016,8 hPa #0,0 l/m 3,7 km/h (1 Bft) #2:14 h #20:50 h 4,2 km/h (1 Bft)
© 2012 W. Hausmann